Wetterdaten: Samstag, 25.04.2015
Datum Zeit Temp. Aussen +5cm Feuchte Auss Luftdruck Regen Sonnenschein Regendauer Solar Windben
25.04.2015 00:00 17,3 C 14,4 C 63 % 1008,5 hPa 0,0 l/m 0 min 0 min 0 W/m 18,8 km/h (3 Bft)
25.04.2015 00:02 17,3 C 14,4 C 63 % 1008,5 hPa 0,0 l/m 0 min 0 min 0 W/m 20,9 km/h (4 Bft)
25.04.2015 00:05 17,3 C 14,4 C 63 % 1008,5 hPa 0,0 l/m 0 min 0 min 0 W/m 18,8 km/h (3 Bft)
25.04.2015 00:06 17,3 C 14,4 C 63 % 1008,5 hPa 0,0 l/m 0 min 0 min 0 W/m 14,6 km/h (3 Bft)
25.04.2015 00:08 17,4 C 14,4 C 64 % 1008,5 hPa 0,0 l/m 0 min 0 min 0 W/m 14,6 km/h (3 Bft)
25.04.2015 00:10 17,4 C 14,4 C 64 % 1008,5 hPa 0,0 l/m 0 min 0 min 0 W/m 18,8 km/h (3 Bft)
25.04.2015 00:12 17,4 C 14,4 C 64 % 1008,7 hPa 0,0 l/m 0 min 0 min 0 W/m 20,9 km/h (4 Bft)
25.04.2015 00:14 17,4 C 14,4 C 64 % 1008,7 hPa 0,0 l/m 0 min 0 min 0 W/m 16,7 km/h (3 Bft)
25.04.2015 00:16 17,4 C 14,4 C 65 % 1008,6 hPa 0,0 l/m 0 min 0 min 0 W/m 27,2 km/h (4 Bft)
25.04.2015 00:18 17,4 C 14,4 C 65 % 1008,7 hPa 0,0 l/m 0 min 0 min 0 W/m 18,8 km/h (3 Bft)
25.04.2015 00:20 17,4 C 14,4 C 65 % 1008,7 hPa 0,0 l/m 0 min 0 min 0 W/m 20,9 km/h (4 Bft)
25.04.2015 00:22 17,4 C 14,4 C 66 % 1008,7 hPa 0,0 l/m 0 min 0 min 0 W/m 25,1 km/h (4 Bft)
25.04.2015 00:24 17,4 C 14,4 C 66 % 1008,6 hPa 0,0 l/m 0 min 0 min 0 W/m 33,5 km/h (5 Bft)
25.04.2015 00:26 17,4 C 14,4 C 66 % 1008,7 hPa 0,0 l/m 0 min 0 min 0 W/m 25,1 km/h (4 Bft)
25.04.2015 00:28 17,4 C 14,4 C 67 % 1008,8 hPa 0,0 l/m 0 min 2 min 0 W/m 31,4 km/h (5 Bft)
25.04.2015 00:30 17,4 C 12,8 C 69 % 1008,8 hPa 0,0 l/m 0 min 2 min 0 W/m 31,4 km/h (5 Bft)
25.04.2015 00:32 17,3 C 12,8 C 71 % 1008,8 hPa 0,0 l/m 0 min 2 min 0 W/m 31,4 km/h (5 Bft)
25.04.2015 00:34 17,2 C 12,2 C 73 % 1008,9 hPa 0,0 l/m 0 min 2 min 0 W/m 27,2 km/h (4 Bft)
25.04.2015 00:36 17,1 C 12,2 C 73 % 1008,9 hPa 0,2 l/m 0 min 2 min 0 W/m 20,9 km/h (4 Bft)
25.04.2015 00:38 16,9 C 12,2 C 74 % 1008,8 hPa 0,0 l/m 0 min 2 min 0 W/m 16,7 km/h (3 Bft)
25.04.2015 00:40 16,9 C 12,2 C 75 % 1008,8 hPa 0,0 l/m 0 min 2 min 0 W/m 8,4 km/h (2 Bft)
25.04.2015 00:42 16,8 C 12,2 C 75 % 1008,8 hPa 0,0 l/m 0 min 2 min 0 W/m 4,2 km/h (1 Bft)
25.04.2015 00:44 16,8 C 12,2 C 75 % 1008,8 hPa 0,0 l/m 0 min 2 min 0 W/m 6,3 km/h (2 Bft)
25.04.2015 00:46 16,8 C 12,2 C 76 % 1008,8 hPa 0,0 l/m 0 min 2 min 0 W/m 4,2 km/h (1 Bft)
25.04.2015 00:48 16,7 C 12,2 C 76 % 1008,7 hPa 0,0 l/m 0 min 2 min 0 W/m 4,2 km/h (1 Bft)
25.04.2015 00:50 16,7 C 12,2 C 76 % 1008,7 hPa 0,0 l/m 0 min 2 min 0 W/m 4,2 km/h (1 Bft)
25.04.2015 00:52 16,6 C 12,2 C 76 % 1008,7 hPa 0,0 l/m 0 min 0 min 0 W/m 6,3 km/h (2 Bft)
25.04.2015 00:54 16,6 C 12,2 C 76 % 1008,6 hPa 0,0 l/m 0 min 0 min 0 W/m 2,1 km/h (1 Bft)
25.04.2015 00:56 16,5 C 12,2 C 76 % 1008,6 hPa 0,0 l/m 0 min 0 min 0 W/m 4,2 km/h (1 Bft)
25.04.2015 00:58 16,4 C 12,2 C 77 % 1008,5 hPa 0,0 l/m 0 min 0 min 0 W/m 2,1 km/h (1 Bft)
25.04.2015 01:00 16,4 C 12,2 C 77 % 1008,5 hPa 0,0 l/m 0 min 0 min 0 W/m 2,1 km/h (1 Bft)
25.04.2015 01:02 16,3 C 12,2 C 77 % 1008,5 hPa 0,0 l/m 0 min 0 min 0 W/m 2,1 km/h (1 Bft)
25.04.2015 01:04 16,3 C 12,2 C 78 % 1008,5 hPa 0,0 l/m 0 min 0 min 0 W/m 4,2 km/h (1 Bft)
25.04.2015 01:06 16,2 C 12,2 C 78 % 1008,6 hPa 0,0 l/m 0 min 0 min 0 W/m 6,3 km/h (2 Bft)
25.04.2015 01:08 16,2 C 12,2 C 78 % 1008,5 hPa 0,0 l/m 0 min 0 min 0 W/m 4,2 km/h (1 Bft)
25.04.2015 01:10 16,1 C 12,2 C 78 % 1008,6 hPa 0,0 l/m 0 min 0 min 0 W/m 4,2 km/h (1 Bft)
25.04.2015 01:12 16,1 C 12,2 C 79 % 1008,6 hPa 0,0 l/m 0 min 0 min 0 W/m 4,2 km/h (1 Bft)
25.04.2015 01:14 16,0 C 12,2 C 79 % 1008,6 hPa 0,0 l/m 0 min 0 min 0 W/m 4,2 km/h (1 Bft)
25.04.2015 01:16 15,9 C 12,2 C 80 % 1008,6 hPa 0,0 l/m 0 min 0 min 0 W/m 4,2 km/h (1 Bft)
25.04.2015 01:18 15,9 C 12,2 C 80 % 1008,6 hPa 0,0 l/m 0 min 0 min 0 W/m 4,2 km/h (1 Bft)
25.04.2015 01:20 15,9 C 12,2 C 80 % 1008,6 hPa 0,0 l/m 0 min 0 min 0 W/m 4,2 km/h (1 Bft)
25.04.2015 01:22 15,8 C 12,2 C 81 % 1008,6 hPa 0,0 l/m 0 min 0 min 0 W/m 4,2 km/h (1 Bft)
25.04.2015 01:24 15,8 C 12,2 C 81 % 1008,6 hPa 0,0 l/m 0 min 0 min 0 W/m 2,1 km/h (1 Bft)
25.04.2015 01:26 15,7 C 12,2 C 81 % 1008,6 hPa 0,0 l/m 0 min 0 min 0 W/m 2,1 km/h (1 Bft)
25.04.2015 01:28 15,7 C 12,2 C 82 % 1008,5 hPa 0,0 l/m 0 min 0 min 0 W/m 4,2 km/h (1 Bft)
25.04.2015 01:30 15,6 C 12,2 C 82 % 1008,5 hPa 0,0 l/m 0 min 0 min 0 W/m 2,1 km/h (1 Bft)
25.04.2015 01:32 15,6 C 12,2 C 82 % 1008,5 hPa 0,0 l/m 0 min 0 min 0 W/m 2,1 km/h (1 Bft)
25.04.2015 01:34 15,5 C 11,7 C 83 % 1008,5 hPa 0,0 l/m 0 min 0 min 0 W/m 2,1 km/h (1 Bft)
25.04.2015 01:36 15,5 C 11,7 C 83 % 1008,5 hPa 0,0 l/m 0 min 0 min 0 W/m 4,2 km/h (1 Bft)
25.04.2015 01:38 15,4 C 11,7 C 83 % 1008,5 hPa 0,0 l/m 0 min 0 min 0 W/m 4,2 km/h (1 Bft)
25.04.2015 01:40 15,4 C 11,7 C 83 % 1008,5 hPa 0,0 l/m 0 min 0 min 0 W/m 4,2 km/h (1 Bft)
25.04.2015 01:42 15,3 C 11,7 C 83 % 1008,5 hPa 0,0 l/m 0 min 0 min 0 W/m 4,2 km/h (1 Bft)
25.04.2015 01:44 15,3 C 11,7 C 83 % 1008,5 hPa 0,0 l/m 0 min 0 min 0 W/m 6,3 km/h (2 Bft)
25.04.2015 01:46 15,3 C 11,7 C 83 % 1008,3 hPa 0,0 l/m 0 min 0 min 0 W/m 6,3 km/h (2 Bft)
25.04.2015 01:48 15,2 C 11,7 C 83 % 1008,4 hPa 0,0 l/m 0 min 0 min 0 W/m 4,2 km/h (1 Bft)
25.04.2015 01:50 15,2 C 11,7 C 84 % 1008,3 hPa 0,0 l/m 0 min 0 min 0 W/m 6,3 km/h (2 Bft)
25.04.2015 01:52 15,1 C 11,7 C 84 % 1008,3 hPa 0,0 l/m 0 min 0 min 0 W/m 6,3 km/h (2 Bft)
25.04.2015 01:54 15,1 C 11,7 C 84 % 1008,3 hPa 0,0 l/m 0 min 0 min 0 W/m 8,4 km/h (2 Bft)
25.04.2015 01:56 15,1 C 11,7 C 84 % 1008,3 hPa 0,0 l/m 0 min 0 min 0 W/m 8,4 km/h (2 Bft)
25.04.2015 01:58 15,0 C 11,7 C 84 % 1008,4 hPa 0,0 l/m 0 min 0 min 0 W/m 8,4 km/h (2 Bft)
25.04.2015 02:00 14,9 C 11,7 C 84 % 1008,3 hPa 0,0 l/m 0 min 0 min 0 W/m 8,4 km/h (2 Bft)
25.04.2015 02:02 14,9 C 11,7 C 84 % 1008,3 hPa 0,0 l/m 0 min 0 min 0 W/m 4,2 km/h (1 Bft)
25.04.2015 02:04 14,8 C 11,7 C 84 % 1008,4 hPa 0,0 l/m 0 min 0 min 0 W/m 4,2 km/h (1 Bft)
25.04.2015 02:06 14,8 C 11,7 C 84 % 1008,4 hPa 0,0 l/m 0 min 0 min 0 W/m 8,4 km/h (2 Bft)
25.04.2015 02:08 14,8 C 11,7 C 84 % 1008,4 hPa 0,0 l/m 0 min 0 min 0 W/m 6,3 km/h (2 Bft)
25.04.2015 02:10 14,7 C 11,7 C 84 % 1008,4 hPa 0,0 l/m 0 min 0 min 0 W/m 8,4 km/h (2 Bft)
25.04.2015 02:12 14,7 C 11,7 C 84 % 1008,4 hPa 0,0 l/m 0 min 0 min 0 W/m 8,4 km/h (2 Bft)
25.04.2015 02:14 14,7 C 11,7 C 84 % 1008,4 hPa 0,0 l/m 0 min 0 min 0 W/m 6,3 km/h (2 Bft)
25.04.2015 02:16 14,6 C 11,7 C 84 % 1008,4 hPa 0,0 l/m 0 min 0 min 0 W/m 8,4 km/h (2 Bft)
25.04.2015 02:18 14,6 C 11,7 C 84 % 1008,3 hPa 0,0 l/m 0 min 0 min 0 W/m 10,5 km/h (2 Bft)
25.04.2015 02:20 14,5 C 11,1 C 83 % 1008,4 hPa 0,0 l/m 0 min 0 min 0 W/m 10,5 km/h (2 Bft)
25.04.2015 02:22 14,4 C 11,1 C 83 % 1008,3 hPa 0,0 l/m 0 min 0 min 0 W/m 8,4 km/h (2 Bft)
25.04.2015 02:24 14,4 C 11,1 C 83 % 1008,3 hPa 0,0 l/m 0 min 0 min 0 W/m 8,4 km/h (2 Bft)
25.04.2015 02:26 14,3 C 11,1 C 83 % 1008,3 hPa 0,0 l/m 0 min 0 min 0 W/m 4,2 km/h (1 Bft)
25.04.2015 02:28 14,2 C 11,1 C 83 % 1008,3 hPa 0,0 l/m 0 min 0 min 0 W/m 6,3 km/h (2 Bft)
25.04.2015 02:30 14,2 C 11,1 C 83 % 1008,2 hPa 0,0 l/m 0 min 0 min 0 W/m 8,4 km/h (2 Bft)
25.04.2015 02:32 14,2 C 11,1 C 83 % 1008,3 hPa 0,0 l/m 0 min 0 min 0 W/m 8,4 km/h (2 Bft)
25.04.2015 02:34 14,2 C 11,1 C 82 % 1008,3 hPa 0,0 l/m 0 min 0 min 0 W/m 8,4 km/h (2 Bft)
25.04.2015 02:36 14,2 C 11,1 C 82 % 1008,3 hPa 0,0 l/m 0 min 0 min 0 W/m 8,4 km/h (2 Bft)
25.04.2015 02:38 14,2 C 11,1 C 82 % 1008,3 hPa 0,0 l/m 0 min 0 min 0 W/m 8,4 km/h (2 Bft)
25.04.2015 02:40 14,1 C 11,1 C 82 % 1008,2 hPa 0,0 l/m 0 min 0 min 0 W/m 8,4 km/h (2 Bft)
25.04.2015 02:42 14,1 C 11,1 C 81 % 1008,2 hPa 0,0 l/m 0 min 0 min 0 W/m 8,4 km/h (2 Bft)
25.04.2015 02:44 14,0 C 11,1 C 81 % 1008,2 hPa 0,0 l/m 0 min 0 min 0 W/m 8,4 km/h (2 Bft)
25.04.2015 02:46 13,9 C 11,1 C 81 % 1008,2 hPa 0,0 l/m 0 min 0 min 0 W/m 8,4 km/h (2 Bft)
25.04.2015 02:48 13,9 C 10,6 C 81 % 1008,2 hPa 0,0 l/m 0 min 0 min 0 W/m 8,4 km/h (2 Bft)
25.04.2015 02:50 13,8 C 10,6 C 81 % 1008,3 hPa 0,0 l/m 0 min 0 min 0 W/m 8,4 km/h (2 Bft)
25.04.2015 02:52 13,8 C 10,6 C 80 % 1008,3 hPa 0,0 l/m 0 min 0 min 0 W/m 6,3 km/h (2 Bft)
25.04.2015 02:54 13,8 C 10,6 C 80 % 1008,3 hPa 0,0 l/m 0 min 0 min 0 W/m 6,3 km/h (2 Bft)
25.04.2015 02:56 13,8 C 10,6 C 80 % 1008,3 hPa 0,0 l/m 0 min 0 min 0 W/m 6,3 km/h (2 Bft)
25.04.2015 02:58 13,7 C 10,6 C 80 % 1008,3 hPa 0,0 l/m 0 min 0 min 0 W/m 6,3 km/h (2 Bft)
25.04.2015 03:00 13,7 C 10,6 C 80 % 1008,3 hPa 0,0 l/m 0 min 0 min 0 W/m 8,4 km/h (2 Bft)
25.04.2015 03:02 13,7 C 10,6 C 80 % 1008,2 hPa 0,0 l/m 0 min 0 min 0 W/m 6,3 km/h (2 Bft)
25.04.2015 03:04 13,7 C 10,6 C 80 % 1008,2 hPa 0,0 l/m 0 min 0 min 0 W/m 6,3 km/h (2 Bft)
25.04.2015 03:06 13,7 C 10,6 C 80 % 1008,3 hPa 0,0 l/m 0 min 0 min 0 W/m 8,4 km/h (2 Bft)
25.04.2015 03:08 13,6 C 10,6 C 80 % 1008,2 hPa 0,0 l/m 0 min 0 min 0 W/m 8,4 km/h (2 Bft)
25.04.2015 03:10 13,6 C 10,6 C 80 % 1008,3 hPa 0,0 l/m 0 min 0 min 0 W/m 6,3 km/h (2 Bft)
25.04.2015 03:12 13,6 C 10,6 C 80 % 1008,2 hPa 0,0 l/m 0 min 0 min 0 W/m 6,3 km/h (2 Bft)
25.04.2015 03:14 13,6 C 10,6 C 80 % 1008,2 hPa 0,0 l/m 0 min 0 min 0 W/m 4,2 km/h (1 Bft)
25.04.2015 03:16 13,6 C 10,6 C 80 % 1008,2 hPa 0,0 l/m 0 min 0 min 0 W/m 4,2 km/h (1 Bft)
25.04.2015 03:18 13,5 C 10,6 C 80 % 1008,2 hPa 0,0 l/m 0 min 0 min 0 W/m 4,2 km/h (1 Bft)
25.04.2015 03:20 13,5 C 10,6 C 80 % 1008,2 hPa 0,0 l/m 0 min 0 min 0 W/m 6,3 km/h (2 Bft)
25.04.2015 03:22 13,4 C 10,6 C 80 % 1008,2 hPa 0,0 l/m 0 min 0 min 0 W/m 4,2 km/h (1 Bft)
25.04.2015 03:24 13,4 C 10,6 C 80 % 1008,2 hPa 0,0 l/m 0 min 0 min 0 W/m 8,4 km/h (2 Bft)
25.04.2015 03:26 13,4 C 10,6 C 80 % 1008,2 hPa 0,0 l/m 0 min 0 min 0 W/m 6,3 km/h (2 Bft)
25.04.2015 03:28 13,4 C 10,6 C 80 % 1008,2 hPa 0,0 l/m 0 min 0 min 0 W/m 4,2 km/h (1 Bft)
25.04.2015 03:30 13,4 C 10,6 C 80 % 1008,2 hPa 0,0 l/m 0 min 0 min 0 W/m 8,4 km/h (2 Bft)
25.04.2015 03:32 13,4 C 10,6 C 80 % 1008,2 hPa 0,0 l/m 0 min 0 min 0 W/m 6,3 km/h (2 Bft)
25.04.2015 03:34 13,3 C 10,6 C 80 % 1008,2 hPa 0,0 l/m 0 min 0 min 0 W/m 6,3 km/h (2 Bft)
25.04.2015 03:36 13,3 C 10,6 C 80 % 1008,2 hPa 0,0 l/m 0 min 0 min 0 W/m 8,4 km/h (2 Bft)
25.04.2015 03:38 13,3 C 10,6 C 80 % 1008,2 hPa 0,0 l/m 0 min 0 min 0 W/m 10,5 km/h (2 Bft)
25.04.2015 03:40 13,3 C 10,6 C 80 % 1008,1 hPa 0,0 l/m 0 min 0 min 0 W/m 10,5 km/h (2 Bft)
25.04.2015 03:42 13,3 C 10,6 C 80 % 1008,1 hPa 0,0 l/m 0 min 0 min 0 W/m 8,4 km/h (2 Bft)
25.04.2015 03:44 13,3 C 10,6 C 81 % 1008,1 hPa 0,0 l/m 0 min 0 min 0 W/m 6,3 km/h (2 Bft)
25.04.2015 03:46 13,2 C 10,6 C 81 % 1008,1 hPa 0,0 l/m 0 min 0 min 0 W/m 6,3 km/h (2 Bft)
25.04.2015 03:48 13,2 C 10,6 C 81 % 1008,1 hPa 0,0 l/m 0 min 0 min 0 W/m 6,3 km/h (2 Bft)
25.04.2015 03:50 13,2 C 10,6 C 81 % 1008,1 hPa 0,0 l/m 0 min 0 min 0 W/m 6,3 km/h (2 Bft)
25.04.2015 03:52 13,2 C 10,6 C 81 % 1008,1 hPa 0,0 l/m 0 min 0 min 0 W/m 6,3 km/h (2 Bft)
25.04.2015 03:54 13,2 C 10,6 C 81 % 1008,1 hPa 0,0 l/m 0 min 0 min 0 W/m 6,3 km/h (2 Bft)
25.04.2015 03:56 13,2 C 10,6 C 81 % 1008,1 hPa 0,0 l/m 0 min 0 min 0 W/m 6,3 km/h (2 Bft)
25.04.2015 03:58 13,2 C 10,6 C 81 % 1008,1 hPa 0,0 l/m 0 min 0 min 0 W/m 6,3 km/h (2 Bft)
25.04.2015 04:00 13,1 C 10,6 C 81 % 1007,9 hPa 0,0 l/m 0 min 0 min 0 W/m 6,3 km/h (2 Bft)
25.04.2015 04:02 13,1 C 10,6 C 81 % 1007,9 hPa 0,0 l/m 0 min 0 min 0 W/m 4,2 km/h (1 Bft)
25.04.2015 04:04 13,1 C 10,6 C 81 % 1007,9 hPa 0,0 l/m 0 min 0 min 0 W/m 4,2 km/h (1 Bft)
25.04.2015 04:06 13,1 C 10,6 C 81 % 1007,8 hPa 0,0 l/m 0 min 0 min 0 W/m 4,2 km/h (1 Bft)
25.04.2015 04:08 13,1 C 10,6 C 81 % 1007,8 hPa 0,0 l/m 0 min 0 min 0 W/m 6,3 km/h (2 Bft)
25.04.2015 04:10 13,1 C 10,6 C 81 % 1007,7 hPa 0,0 l/m 0 min 0 min 0 W/m 6,3 km/h (2 Bft)
25.04.2015 04:12 13,1 C 10,6 C 82 % 1007,8 hPa 0,0 l/m 0 min 0 min 0 W/m 6,3 km/h (2 Bft)
25.04.2015 04:14 13,0 C 10,6 C 82 % 1007,8 hPa 0,0 l/m 0 min 0 min 0 W/m 4,2 km/h (1 Bft)
25.04.2015 04:16 13,0 C 10,6 C 82 % 1007,8 hPa 0,0 l/m 0 min 0 min 0 W/m 2,1 km/h (1 Bft)
25.04.2015 04:18 13,0 C 10,6 C 82 % 1007,7 hPa 0,0 l/m 0 min 0 min 0 W/m 2,1 km/h (1 Bft)
25.04.2015 04:20 13,0 C 10,6 C 82 % 1007,8 hPa 0,0 l/m 0 min 0 min 0 W/m 2,1 km/h (1 Bft)
25.04.2015 04:22 13,0 C 10,6 C 82 % 1007,8 hPa 0,0 l/m 0 min 0 min 0 W/m 4,2 km/h (1 Bft)
25.04.2015 04:24 13,0 C 10,6 C 82 % 1007,8 hPa 0,0 l/m 0 min 0 min 0 W/m 2,1 km/h (1 Bft)
25.04.2015 04:26 12,9 C 10,6 C 82 % 1007,8 hPa 0,0 l/m 0 min 0 min 0 W/m 2,1 km/h (1 Bft)
25.04.2015 04:28 12,9 C 10,6 C 82 % 1007,8 hPa 0,0 l/m 0 min 0 min 0 W/m 4,2 km/h (1 Bft)
25.04.2015 04:30 12,9 C 10,6 C 82 % 1007,7 hPa 0,0 l/m 0 min 0 min 0 W/m 4,2 km/h (1 Bft)
25.04.2015 04:32 12,9 C 10,6 C 82 % 1007,7 hPa 0,0 l/m 0 min 0 min 0 W/m 4,2 km/h (1 Bft)
25.04.2015 04:34 12,9 C 10,6 C 82 % 1007,8 hPa 0,0 l/m 0 min 0 min 0 W/m 2,1 km/h (1 Bft)
25.04.2015 04:36 12,9 C 10,6 C 82 % 1007,8 hPa 0,0 l/m 0 min 0 min 0 W/m 4,2 km/h (1 Bft)
25.04.2015 04:38 12,9 C 10,6 C 82 % 1007,8 hPa 0,0 l/m 0 min 0 min 0 W/m 2,1 km/h (1 Bft)
25.04.2015 04:40 12,9 C 10,6 C 83 % 1007,7 hPa 0,0 l/m 0 min 0 min 0 W/m 2,1 km/h (1 Bft)
25.04.2015 04:42 12,9 C 10,6 C 83 % 1007,7 hPa 0,0 l/m 0 min 0 min 0 W/m 2,1 km/h (1 Bft)
25.04.2015 04:44 12,9 C 10,6 C 83 % 1007,7 hPa 0,0 l/m 0 min 0 min 0 W/m 2,1 km/h (1 Bft)
25.04.2015 04:46 12,9 C 10,6 C 83 % 1007,7 hPa 0,0 l/m 0 min 0 min 0 W/m 4,2 km/h (1 Bft)
25.04.2015 04:48 12,8 C 10,6 C 83 % 1007,7 hPa 0,0 l/m 0 min 0 min 0 W/m 4,2 km/h (1 Bft)
25.04.2015 04:50 12,8 C 10,6 C 83 % 1007,7 hPa 0,0 l/m 0 min 0 min 0 W/m 4,2 km/h (1 Bft)
25.04.2015 04:52 12,8 C 10,6 C 83 % 1007,8 hPa 0,0 l/m 0 min 0 min 0 W/m 2,1 km/h (1 Bft)
25.04.2015 04:54 12,8 C 10,6 C 84 % 1007,8 hPa 0,0 l/m 0 min 0 min 0 W/m 2,1 km/h (1 Bft)
25.04.2015 04:56 12,8 C 10,6 C 84 % 1007,8 hPa 0,0 l/m 0 min 0 min 0 W/m 2,1 km/h (1 Bft)
25.04.2015 04:58 12,8 C 10,6 C 83 % 1007,8 hPa 0,0 l/m 0 min 0 min 0 W/m 4,2 km/h (1 Bft)
25.04.2015 05:00 12,8 C 10,0 C 83 % 1007,9 hPa 0,0 l/m 0 min 0 min 0 W/m 4,2 km/h (1 Bft)
25.04.2015 05:02 12,7 C 10,0 C 84 % 1007,9 hPa 0,0 l/m 0 min 0 min 0 W/m 4,2 km/h (1 Bft)
25.04.2015 05:04 12,7 C 10,0 C 84 % 1007,8 hPa 0,0 l/m 0 min 0 min 0 W/m 4,2 km/h (1 Bft)
25.04.2015 05:06 12,7 C 10,0 C 84 % 1007,8 hPa 0,0 l/m 0 min 0 min 0 W/m 4,2 km/h (1 Bft)
25.04.2015 05:08 12,7 C 10,0 C 84 % 1007,8 hPa 0,0 l/m 0 min 0 min 0 W/m 6,3 km/h (2 Bft)
25.04.2015 05:10 12,7 C 10,0 C 84 % 1007,8 hPa 0,0 l/m 0 min 0 min 0 W/m 4,2 km/h (1 Bft)
25.04.2015 05:12 12,6 C 10,0 C 84 % 1007,8 hPa 0,0 l/m 0 min 0 min 0 W/m 4,2 km/h (1 Bft)
25.04.2015 05:14 12,6 C 10,0 C 84 % 1007,8 hPa 0,0 l/m 0 min 0 min 0 W/m 6,3 km/h (2 Bft)
25.04.2015 05:16 12,6 C 10,0 C 84 % 1007,8 hPa 0,0 l/m 0 min 0 min 0 W/m 6,3 km/h (2 Bft)
25.04.2015 05:18 12,6 C 10,0 C 84 % 1007,8 hPa 0,0 l/m 0 min 0 min 0 W/m 6,3 km/h (2 Bft)
25.04.2015 05:20 12,5 C 10,0 C 84 % 1007,7 hPa 0,0 l/m 0 min 0 min 0 W/m 6,3 km/h (2 Bft)
25.04.2015 05:22 12,5 C 10,0 C 84 % 1007,7 hPa 0,0 l/m 0 min 0 min 0 W/m 6,3 km/h (2 Bft)
25.04.2015 05:24 12,4 C 10,0 C 84 % 1007,8 hPa 0,0 l/m 0 min 0 min 0 W/m 8,4 km/h (2 Bft)
25.04.2015 05:26 12,4 C 10,0 C 84 % 1007,7 hPa 0,0 l/m 0 min 0 min 0 W/m 8,4 km/h (2 Bft)
25.04.2015 05:28 12,4 C 10,0 C 84 % 1007,7 hPa 0,0 l/m 0 min 0 min 0 W/m 10,5 km/h (2 Bft)
25.04.2015 05:30 12,3 C 10,0 C 84 % 1007,8 hPa 0,0 l/m 0 min 0 min 0 W/m 10,5 km/h (2 Bft)
25.04.2015 05:32 12,3 C 10,0 C 84 % 1007,8 hPa 0,0 l/m 0 min 0 min 0 W/m 10,5 km/h (2 Bft)
25.04.2015 05:34 12,3 C 10,6 C 84 % 1007,9 hPa 0,0 l/m 0 min 0 min 0 W/m 10,5 km/h (2 Bft)
25.04.2015 05:36 12,3 C 10,6 C 84 % 1007,9 hPa 0,0 l/m 0 min 0 min 0 W/m 8,4 km/h (2 Bft)
25.04.2015 05:38 12,2 C 10,6 C 84 % 1008,0 hPa 0,0 l/m 0 min 0 min 0 W/m 8,4 km/h (2 Bft)
25.04.2015 05:40 12,2 C 10,6 C 84 % 1008,2 hPa 0,0 l/m 0 min 0 min 0 W/m 10,5 km/h (2 Bft)
25.04.2015 05:42 12,2 C 10,6 C 84 % 1008,2 hPa 0,0 l/m 0 min 0 min 0 W/m 8,4 km/h (2 Bft)
25.04.2015 05:44 12,2 C 10,6 C 84 % 1008,1 hPa 0,0 l/m 0 min 0 min 0 W/m 8,4 km/h (2 Bft)
25.04.2015 05:46 12,2 C 10,6 C 84 % 1008,0 hPa 0,0 l/m 0 min 0 min 0 W/m 8,4 km/h (2 Bft)
25.04.2015 05:48 12,2 C 10,6 C 84 % 1008,1 hPa 0,0 l/m 0 min 0 min 0 W/m 10,5 km/h (2 Bft)
25.04.2015 05:50 12,2 C 10,6 C 84 % 1008,0 hPa 0,0 l/m 0 min 0 min 0 W/m 10,5 km/h (2 Bft)
25.04.2015 05:52 12,2 C 10,6 C 84 % 1008,1 hPa 0,0 l/m 0 min 0 min 0 W/m 12,6 km/h (3 Bft)
25.04.2015 05:54 12,2 C 10,6 C 84 % 1008,1 hPa 0,0 l/m 0 min 0 min 0 W/m 12,6 km/h (3 Bft)
25.04.2015 05:56 12,2 C 10,6 C 84 % 1008,1 hPa 0,0 l/m 0 min 0 min 0 W/m 10,5 km/h (2 Bft)
25.04.2015 05:58 12,2 C 10,6 C 84 % 1008,1 hPa 0,0 l/m 0 min 2 min 0 W/m 16,7 km/h (3 Bft)
25.04.2015 06:00 12,2 C 10,6 C 84 % 1008,0 hPa 0,0 l/m 0 min 2 min 0 W/m 14,6 km/h (3 Bft)
25.04.2015 06:02 12,2 C 10,6 C 84 % 1008,1 hPa 0,0 l/m 0 min 2 min 0 W/m 14,6 km/h (3 Bft)
25.04.2015 06:04 12,2 C 10,6 C 85 % 1008,1 hPa 0,0 l/m 0 min 2 min 0 W/m 18,8 km/h (3 Bft)
25.04.2015 06:06 12,3 C 10,0 C 85 % 1008,0 hPa 0,0 l/m 0 min 2 min 0 W/m 10,5 km/h (2 Bft)
25.04.2015 06:08 12,3 C 10,0 C 85 % 1008,1 hPa 0,0 l/m 0 min 2 min 0 W/m 16,7 km/h (3 Bft)
25.04.2015 06:10 12,3 C 10,0 C 85 % 1008,0 hPa 0,0 l/m 0 min 2 min 0 W/m 16,7 km/h (3 Bft)
25.04.2015 06:12 12,3 C 10,0 C 85 % 1008,0 hPa 0,2 l/m 0 min 2 min 0 W/m 18,8 km/h (3 Bft)
25.04.2015 06:14 12,3 C 10,0 C 86 % 1008,1 hPa 0,0 l/m 0 min 0 min 0 W/m 14,6 km/h (3 Bft)
25.04.2015 06:16 12,3 C 10,0 C 85 % 1008,1 hPa 0,0 l/m 0 min 2 min 0 W/m 10,5 km/h (2 Bft)
25.04.2015 06:18 12,3 C 10,0 C 86 % 1008,1 hPa 0,0 l/m 0 min 2 min 0 W/m 10,5 km/h (2 Bft)
25.04.2015 06:20 12,2 C 10,0 C 86 % 1008,1 hPa 0,0 l/m 0 min 2 min 0 W/m 8,4 km/h (2 Bft)
25.04.2015 06:22 12,2 C 10,0 C 86 % 1008,2 hPa 0,0 l/m 0 min 2 min 0 W/m 8,4 km/h (2 Bft)
25.04.2015 06:24 12,2 C 10,0 C 86 % 1008,2 hPa 0,0 l/m 0 min 2 min 0 W/m 10,5 km/h (2 Bft)
25.04.2015 06:26 12,2 C 10,0 C 86 % 1008,1 hPa 0,0 l/m 0 min 2 min 0 W/m 8,4 km/h (2 Bft)
25.04.2015 06:28 12,2 C 10,0 C 86 % 1008,1 hPa 0,0 l/m 0 min 2 min 0 W/m 6,3 km/h (2 Bft)
25.04.2015 06:30 12,2 C 10,0 C 86 % 1008,1 hPa 0,0 l/m 0 min 2 min 0 W/m 8,4 km/h (2 Bft)
25.04.2015 06:32 12,2 C 10,0 C 86 % 1008,1 hPa 0,0 l/m 0 min 2 min 0 W/m 8,4 km/h (2 Bft)
25.04.2015 06:34 12,2 C 10,0 C 86 % 1007,9 hPa 0,0 l/m 0 min 2 min 3 W/m 6,3 km/h (2 Bft)
25.04.2015 06:36 12,1 C 10,0 C 86 % 1007,9 hPa 0,0 l/m 0 min 2 min 5 W/m 4,2 km/h (1 Bft)
25.04.2015 06:38 12,1 C 10,0 C 86 % 1008,0 hPa 0,0 l/m 0 min 0 min 5 W/m 4,2 km/h (1 Bft)
25.04.2015 06:40 12,1 C 10,0 C 86 % 1007,9 hPa 0,0 l/m 0 min 0 min 5 W/m 0,0 km/h (0 Bft)
25.04.2015 06:42 12,1 C 10,0 C 87 % 1007,9 hPa 0,0 l/m 0 min 0 min 5 W/m 2,1 km/h (1 Bft)
25.04.2015 06:44 12,1 C 10,0 C 87 % 1007,7 hPa 0,0 l/m 0 min 0 min 5 W/m 2,1 km/h (1 Bft)
25.04.2015 06:46 12,1 C 10,0 C 87 % 1007,7 hPa 0,0 l/m 0 min 2 min 6 W/m 2,1 km/h (1 Bft)
25.04.2015 06:48 12,1 C 10,0 C 87 % 1007,7 hPa 0,0 l/m 0 min 2 min 7 W/m 2,1 km/h (1 Bft)
25.04.2015 06:50 12,0 C 10,0 C 87 % 1007,6 hPa 0,0 l/m 0 min 2 min 7 W/m 2,1 km/h (1 Bft)
25.04.2015 06:52 12,0 C 10,0 C 87 % 1007,6 hPa 0,0 l/m 0 min 2 min 7 W/m 2,1 km/h (1 Bft)
25.04.2015 06:54 12,0 C 10,0 C 87 % 1007,7 hPa 0,0 l/m 0 min 0 min 7 W/m 0,0 km/h (0 Bft)
25.04.2015 06:56 11,9 C 10,0 C 86 % 1007,7 hPa 0,0 l/m 0 min 2 min 7 W/m 2,1 km/h (1 Bft)
25.04.2015 06:58 11,9 C 10,0 C 86 % 1007,7 hPa 0,0 l/m 0 min 0 min 9 W/m 2,1 km/h (1 Bft)
25.04.2015 07:00 11,9 C 10,0 C 86 % 1007,7 hPa 0,0 l/m 0 min 2 min 10 W/m 2,1 km/h (1 Bft)
25.04.2015 07:02 11,9 C 10,0 C 86 % 1007,8 hPa 0,0 l/m 0 min 2 min 11 W/m 4,2 km/h (1 Bft)
25.04.2015 07:06 11,9 C 10,0 C 87 % 1007,8 hPa 0,0 l/m 0 min 2 min 11 W/m 6,3 km/h (2 Bft)
25.04.2015 07:08 11,9 C 10,0 C 87 % 1007,8 hPa 0,2 l/m 0 min 2 min 11 W/m 6,3 km/h (2 Bft)
25.04.2015 07:10 11,9 C 10,0 C 87 % 1007,8 hPa 0,0 l/m 0 min 2 min 11 W/m 6,3 km/h (2 Bft)
25.04.2015 07:12 11,9 C 10,0 C 88 % 1007,8 hPa 0,0 l/m 0 min 2 min 11 W/m 4,2 km/h (1 Bft)
25.04.2015 07:14 11,9 C 10,0 C 88 % 1007,7 hPa 0,0 l/m 0 min 2 min 11 W/m 2,1 km/h (1 Bft)
25.04.2015 07:16 11,8 C 10,0 C 88 % 1007,7 hPa 0,0 l/m 0 min 2 min 12 W/m 4,2 km/h (1 Bft)
25.04.2015 07:18 11,8 C 10,0 C 88 % 1007,8 hPa 0,0 l/m 0 min 2 min 14 W/m 4,2 km/h (1 Bft)
25.04.2015 07:20 11,8 C 10,0 C 88 % 1007,7 hPa 0,0 l/m 0 min 2 min 16 W/m 4,2 km/h (1 Bft)
25.04.2015 07:22 11,8 C 10,0 C 88 % 1007,8 hPa 0,0 l/m 0 min 2 min 16 W/m 4,2 km/h (1 Bft)
25.04.2015 07:24 11,8 C 10,0 C 88 % 1007,8 hPa 0,0 l/m 0 min 2 min 17 W/m 4,2 km/h (1 Bft)
25.04.2015 07:26 11,8 C 10,0 C 88 % 1007,8 hPa 0,0 l/m 0 min 2 min 19 W/m 4,2 km/h (1 Bft)
25.04.2015 07:28 11,8 C 10,0 C 88 % 1007,7 hPa 0,0 l/m 0 min 2 min 21 W/m 6,3 km/h (2 Bft)
25.04.2015 07:30 11,8 C 10,0 C 89 % 1007,8 hPa 0,0 l/m 0 min 0 min 26 W/m 6,3 km/h (2 Bft)
25.04.2015 07:32 11,7 C 10,0 C 89 % 1007,9 hPa 0,0 l/m 0 min 2 min 31 W/m 6,3 km/h (2 Bft)
25.04.2015 07:34 11,7 C 10,0 C 89 % 1007,9 hPa 0,0 l/m 0 min 2 min 33 W/m 6,3 km/h (2 Bft)
25.04.2015 07:36 11,7 C 10,0 C 89 % 1008,0 hPa 0,0 l/m 0 min 2 min 33 W/m 6,3 km/h (2 Bft)
25.04.2015 07:38 11,7 C 10,0 C 89 % 1008,0 hPa 0,0 l/m 0 min 2 min 32 W/m 6,3 km/h (2 Bft)
25.04.2015 07:40 11,7 C 10,0 C 89 % 1008,0 hPa 0,0 l/m 0 min 2 min 32 W/m 6,3 km/h (2 Bft)
25.04.2015 07:42 11,7 C 10,0 C 89 % 1008,1 hPa 0,0 l/m 0 min 2 min 30 W/m 8,4 km/h (2 Bft)
25.04.2015 07:44 11,7 C 10,0 C 90 % 1008,1 hPa 0,0 l/m 0 min 2 min 29 W/m 8,4 km/h (2 Bft)
25.04.2015 07:46 11,7 C 10,0 C 89 % 1008,1 hPa 0,0 l/m 0 min 2 min 26 W/m 6,3 km/h (2 Bft)
25.04.2015 07:48 11,7 C 10,0 C 90 % 1008,1 hPa 0,0 l/m 0 min 2 min 25 W/m 8,4 km/h (2 Bft)
25.04.2015 07:50 11,6 C 10,0 C 90 % 1008,1 hPa 0,2 l/m 0 min 2 min 27 W/m 6,3 km/h (2 Bft)
25.04.2015 07:52 11,6 C 10,0 C 90 % 1008,1 hPa 0,0 l/m 0 min 2 min 36 W/m 8,4 km/h (2 Bft)
25.04.2015 07:54 11,6 C 10,0 C 90 % 1008,1 hPa 0,0 l/m 0 min 2 min 39 W/m 6,3 km/h (2 Bft)
25.04.2015 07:56 11,6 C 10,0 C 90 % 1008,1 hPa 0,0 l/m 0 min 2 min 32 W/m 8,4 km/h (2 Bft)
25.04.2015 07:58 11,6 C 10,0 C 90 % 1008,2 hPa 0,0 l/m 0 min 2 min 28 W/m 8,4 km/h (2 Bft)
25.04.2015 08:00 11,5 C 10,0 C 90 % 1008,2 hPa 0,0 l/m 0 min 2 min 28 W/m 4,2 km/h (1 Bft)
25.04.2015 08:02 11,5 C 10,0 C 90 % 1008,2 hPa 0,0 l/m 0 min 2 min 32 W/m 6,3 km/h (2 Bft)
25.04.2015 08:04 11,5 C 10,0 C 90 % 1008,2 hPa 0,0 l/m 0 min 2 min 39 W/m 8,4 km/h (2 Bft)
25.04.2015 08:06 11,5 C 10,0 C 90 % 1008,2 hPa 0,0 l/m 0 min 2 min 37 W/m 6,3 km/h (2 Bft)
25.04.2015 08:08 11,4 C 10,0 C 90 % 1008,2 hPa 0,0 l/m 0 min 2 min 46 W/m 6,3 km/h (2 Bft)
25.04.2015 08:10 11,4 C 10,0 C 90 % 1008,2 hPa 0,0 l/m 0 min 2 min 57 W/m 8,4 km/h (2 Bft)
25.04.2015 08:12 11,4 C 10,0 C 90 % 1008,2 hPa 0,0 l/m 0 min 2 min 57 W/m 6,3 km/h (2 Bft)
25.04.2015 08:14 11,4 C 10,0 C 90 % 1008,1 hPa 0,0 l/m 0 min 2 min 51 W/m 8,4 km/h (2 Bft)
25.04.2015 08:16 11,4 C 10,0 C 90 % 1008,2 hPa 0,0 l/m 0 min 2 min 47 W/m 4,2 km/h (1 Bft)
25.04.2015 08:18 11,4 C 10,0 C 90 % 1008,2 hPa 0,0 l/m 0 min 2 min 46 W/m 8,4 km/h (2 Bft)
25.04.2015 08:20 11,4 C 10,0 C 90 % 1008,1 hPa 0,0 l/m 0 min 2 min 48 W/m 6,3 km/h (2 Bft)
25.04.2015 08:22 11,4 C 10,0 C 91 % 1008,1 hPa 0,0 l/m 0 min 2 min 54 W/m 8,4 km/h (2 Bft)
25.04.2015 08:24 11,4 C 10,0 C 91 % 1008,2 hPa 0,0 l/m 0 min 2 min 59 W/m 8,4 km/h (2 Bft)
25.04.2015 08:26 11,4 C 10,0 C 91 % 1008,1 hPa 0,0 l/m 0 min 2 min 52 W/m 12,6 km/h (3 Bft)
25.04.2015 08:28 11,4 C 10,0 C 91 % 1008,2 hPa 0,0 l/m 0 min 0 min 51 W/m 8,4 km/h (2 Bft)
25.04.2015 08:30 11,4 C 10,0 C 91 % 1008,2 hPa 0,0 l/m 0 min 2 min 51 W/m 12,6 km/h (3 Bft)
25.04.2015 08:32 11,4 C 10,0 C 91 % 1008,2 hPa 0,0 l/m 0 min 2 min 54 W/m 12,6 km/h (3 Bft)
25.04.2015 08:34 11,4 C 10,0 C 91 % 1008,2 hPa 0,0 l/m 0 min 2 min 56 W/m 8,4 km/h (2 Bft)
25.04.2015 08:36 11,4 C 10,0 C 91 % 1008,2 hPa 0,0 l/m 0 min 2 min 59 W/m 6,3 km/h (2 Bft)
25.04.2015 08:38 11,4 C 10,0 C 91 % 1008,2 hPa 0,0 l/m 0 min 2 min 51 W/m 8,4 km/h (2 Bft)
25.04.2015 08:40 11,3 C 10,0 C 91 % 1008,2 hPa 0,0 l/m 0 min 2 min 40 W/m 8,4 km/h (2 Bft)
25.04.2015 08:42 11,3 C 10,0 C 91 % 1008,3 hPa 0,0 l/m 0 min 2 min 32 W/m 12,6 km/h (3 Bft)
25.04.2015 08:44 11,3 C 10,0 C 91 % 1008,2 hPa 0,0 l/m 0 min 2 min 28 W/m 10,5 km/h (2 Bft)
25.04.2015 08:46 11,3 C 10,0 C 91 % 1008,3 hPa 0,0 l/m 0 min 2 min 24 W/m 10,5 km/h (2 Bft)
25.04.2015 08:48 11,3 C 10,0 C 91 % 1008,3 hPa 0,0 l/m 0 min 2 min 25 W/m 12,6 km/h (3 Bft)
25.04.2015 08:50 11,3 C 10,0 C 91 % 1008,4 hPa 0,0 l/m 0 min 2 min 26 W/m 12,6 km/h (3 Bft)
25.04.2015 08:52 11,3 C 10,0 C 91 % 1008,3 hPa 0,0 l/m 0 min 2 min 33 W/m 12,6 km/h (3 Bft)
25.04.2015 08:54 11,2 C 10,0 C 91 % 1008,4 hPa 0,0 l/m 0 min 2 min 28 W/m 10,5 km/h (2 Bft)
25.04.2015 08:56 11,2 C 10,0 C 91 % 1008,4 hPa 0,0 l/m 0 min 2 min 26 W/m 12,6 km/h (3 Bft)
25.04.2015 08:58 11,2 C 10,0 C 91 % 1008,4 hPa 0,0 l/m 0 min 2 min 38 W/m 8,4 km/h (2 Bft)
25.04.2015 09:00 11,2 C 10,0 C 91 % 1008,3 hPa 0,0 l/m 0 min 2 min 55 W/m 8,4 km/h (2 Bft)
25.04.2015 09:02 11,2 C 10,0 C 91 % 1008,2 hPa 0,0 l/m 0 min 2 min 62 W/m 14,6 km/h (3 Bft)
25.04.2015 09:04 11,2 C 10,0 C 91 % 1008,3 hPa 0,0 l/m 0 min 2 min 50 W/m 10,5 km/h (2 Bft)
25.04.2015 09:06 11,2 C 10,0 C 91 % 1008,2 hPa 0,0 l/m 0 min 2 min 40 W/m 10,5 km/h (2 Bft)
25.04.2015 09:08 11,2 C 10,0 C 92 % 1008,3 hPa 0,0 l/m 0 min 2 min 46 W/m 10,5 km/h (2 Bft)
25.04.2015 09:10 11,2 C 10,0 C 92 % 1008,3 hPa 0,0 l/m 0 min 2 min 54 W/m 14,6 km/h (3 Bft)
25.04.2015 09:12 11,2 C 10,0 C 92 % 1008,3 hPa 0,0 l/m 0 min 0 min 57 W/m 14,6 km/h (3 Bft)
25.04.2015 09:14 11,2 C 10,0 C 92 % 1008,3 hPa 0,0 l/m 0 min 0 min 63 W/m 10,5 km/h (2 Bft)
25.04.2015 09:16 11,2 C 10,0 C 92 % 1008,4 hPa 0,0 l/m 0 min 2 min 76 W/m 10,5 km/h (2 Bft)
25.04.2015 09:18 11,2 C 10,0 C 92 % 1008,3 hPa 0,0 l/m 0 min 0 min 104 W/m 10,5 km/h (2 Bft)
25.04.2015 09:20 11,2 C 10,0 C 92 % 1008,3 hPa 0,0 l/m 0 min 2 min 132 W/m 8,4 km/h (2 Bft)
25.04.2015 09:22 11,2 C 10,6 C 92 % 1008,3 hPa 0,0 l/m 0 min 0 min 153 W/m 8,4 km/h (2 Bft)
25.04.2015 09:24 11,3 C 10,6 C 92 % 1008,3 hPa 0,0 l/m 0 min 2 min 167 W/m 10,5 km/h (2 Bft)
25.04.2015 09:26 11,3 C 10,6 C 92 % 1008,3 hPa 0,0 l/m 0 min 0 min 177 W/m 6,3 km/h (2 Bft)
25.04.2015 09:28 11,3 C 10,6 C 92 % 1008,2 hPa 0,0 l/m 0 min 0 min 183 W/m 8,4 km/h (2 Bft)
25.04.2015 09:30 11,4 C 11,1 C 93 % 1008,2 hPa 0,0 l/m 0 min 0 min 185 W/m 6,3 km/h (2 Bft)
25.04.2015 09:32 11,4 C 11,1 C 93 % 1008,2 hPa 0,0 l/m 0 min 2 min 183 W/m 6,3 km/h (2 Bft)
25.04.2015 09:34 11,5 C 11,1 C 93 % 1008,2 hPa 0,0 l/m 0 min 0 min 183 W/m 6,3 km/h (2 Bft)
25.04.2015 09:36 11,6 C 11,1 C 93 % 1008,2 hPa 0,0 l/m 0 min 0 min 182 W/m 6,3 km/h (2 Bft)
25.04.2015 09:38 11,6 C 11,1 C 93 % 1008,2 hPa 0,0 l/m 0 min 0 min 179 W/m 10,5 km/h (2 Bft)
25.04.2015 09:40 11,7 C 11,1 C 93 % 1008,2 hPa 0,0 l/m 0 min 0 min 178 W/m 8,4 km/h (2 Bft)
25.04.2015 09:42 11,7 C 11,1 C 93 % 1008,2 hPa 0,0 l/m 0 min 0 min 175 W/m 10,5 km/h (2 Bft)
25.04.2015 09:44 11,7 C 11,1 C 93 % 1008,2 hPa 0,0 l/m 0 min 0 min 171 W/m 10,5 km/h (2 Bft)
25.04.2015 09:46 11,7 C 11,1 C 93 % 1008,2 hPa 0,0 l/m 0 min 0 min 171 W/m 10,5 km/h (2 Bft)
25.04.2015 09:48 11,7 C 11,1 C 93 % 1008,2 hPa 0,0 l/m 0 min 0 min 174 W/m 16,7 km/h (3 Bft)
25.04.2015 09:50 11,7 C 11,1 C 93 % 1008,2 hPa 0,0 l/m 0 min 0 min 176 W/m 10,5 km/h (2 Bft)
25.04.2015 09:52 11,8 C 11,1 C 93 % 1008,2 hPa 0,0 l/m 0 min 0 min 176 W/m 12,6 km/h (3 Bft)
25.04.2015 09:54 11,8 C 11,1 C 93 % 1008,2 hPa 0,0 l/m 0 min 0 min 180 W/m 10,5 km/h (2 Bft)
25.04.2015 09:56 11,8 C 11,1 C 93 % 1008,2 hPa 0,0 l/m 0 min 0 min 188 W/m 14,6 km/h (3 Bft)
25.04.2015 09:58 11,8 C 11,1 C 93 % 1008,2 hPa 0,0 l/m 0 min 0 min 194 W/m 14,6 km/h (3 Bft)
25.04.2015 10:00 11,8 C 11,1 C 93 % 1008,2 hPa 0,0 l/m 0 min 0 min 202 W/m 12,6 km/h (3 Bft)
25.04.2015 10:02 11,8 C 11,1 C 92 % 1008,2 hPa 0,0 l/m 0 min 0 min 209 W/m 8,4 km/h (2 Bft)
25.04.2015 10:04 11,9 C 11,7 C 93 % 1008,1 hPa 0,0 l/m 0 min 0 min 212 W/m 8,4 km/h (2 Bft)
25.04.2015 10:06 11,9 C 11,7 C 93 % 1008,2 hPa 0,0 l/m 0 min 0 min 215 W/m 10,5 km/h (2 Bft)
25.04.2015 10:08 12,0 C 11,7 C 93 % 1008,2 hPa 0,0 l/m 0 min 0 min 225 W/m 12,6 km/h (3 Bft)
25.04.2015 10:10 12,1 C 11,7 C 92 % 1008,1 hPa 0,0 l/m 0 min 0 min 233 W/m 12,6 km/h (3 Bft)
25.04.2015 10:12 12,1 C 11,7 C 92 % 1008,2 hPa 0,0 l/m 0 min 0 min 234 W/m 14,6 km/h (3 Bft)
25.04.2015 10:14 12,1 C 11,7 C 92 % 1008,2 hPa 0,0 l/m 0 min 0 min 234 W/m 8,4 km/h (2 Bft)
25.04.2015 10:16 12,2 C 11,7 C 92 % 1008,2 hPa 0,0 l/m 0 min 0 min 233 W/m 8,4 km/h (2 Bft)
25.04.2015 10:18 12,2 C 11,7 C 92 % 1008,2 hPa 0,0 l/m 0 min 0 min 237 W/m 14,6 km/h (3 Bft)
25.04.2015 10:20 12,2 C 11,7 C 92 % 1008,2 hPa 0,0 l/m 0 min 0 min 246 W/m 16,7 km/h (3 Bft)
25.04.2015 10:22 12,3 C 11,7 C 92 % 1008,2 hPa 0,0 l/m 0 min 0 min 254 W/m 16,7 km/h (3 Bft)
25.04.2015 10:24 12,3 C 11,7 C 91 % 1008,2 hPa 0,0 l/m 0 min 0 min 246 W/m 10,5 km/h (2 Bft)
25.04.2015 10:26 12,4 C 11,7 C 91 % 1008,1 hPa 0,0 l/m 0 min 0 min 230 W/m 10,5 km/h (2 Bft)
25.04.2015 10:28 12,4 C 11,7 C 91 % 1008,2 hPa 0,0 l/m 0 min 0 min 223 W/m 14,6 km/h (3 Bft)
25.04.2015 10:30 12,4 C 11,7 C 91 % 1008,2 hPa 0,0 l/m 0 min 0 min 221 W/m 10,5 km/h (2 Bft)
25.04.2015 10:32 12,5 C 11,7 C 91 % 1008,2 hPa 0,0 l/m 0 min 0 min 222 W/m 10,5 km/h (2 Bft)
25.04.2015 10:34 12,5 C 11,7 C 90 % 1008,2 hPa 0,0 l/m 0 min 0 min 228 W/m 16,7 km/h (3 Bft)
25.04.2015 10:36 12,6 C 11,7 C 90 % 1008,2 hPa 0,0 l/m 0 min 0 min 232 W/m 14,6 km/h (3 Bft)
25.04.2015 10:38 12,6 C 12,2 C 90 % 1008,2 hPa 0,0 l/m 0 min 0 min 243 W/m 14,6 km/h (3 Bft)
25.04.2015 10:40 12,6 C 12,2 C 90 % 1008,1 hPa 0,0 l/m 0 min 0 min 241 W/m 12,6 km/h (3 Bft)
25.04.2015 10:42 12,7 C 12,2 C 89 % 1008,2 hPa 0,0 l/m 0 min 0 min 227 W/m 14,6 km/h (3 Bft)
25.04.2015 10:44 12,7 C 12,2 C 89 % 1008,2 hPa 0,0 l/m 0 min 0 min 212 W/m 18,8 km/h (3 Bft)
25.04.2015 10:46 12,8 C 12,2 C 89 % 1008,1 hPa 0,0 l/m 0 min 0 min 209 W/m 8,4 km/h (2 Bft)
25.04.2015 10:48 12,8 C 12,2 C 89 % 1008,1 hPa 0,0 l/m 0 min 2 min 222 W/m 12,6 km/h (3 Bft)
25.04.2015 10:50 12,9 C 12,2 C 89 % 1008,1 hPa 0,0 l/m 0 min 2 min 236 W/m 10,5 km/h (2 Bft)
25.04.2015 10:52 12,9 C 12,2 C 89 % 1008,1 hPa 0,0 l/m 0 min 2 min 259 W/m 12,6 km/h (3 Bft)
25.04.2015 10:54 13,0 C 12,2 C 88 % 1008,1 hPa 0,0 l/m 0 min 2 min 270 W/m 10,5 km/h (2 Bft)
25.04.2015 10:56 13,0 C 12,2 C 88 % 1008,1 hPa 0,0 l/m 0 min 2 min 279 W/m 14,6 km/h (3 Bft)
25.04.2015 10:58 13,1 C 12,2 C 88 % 1008,1 hPa 0,0 l/m 0 min 2 min 289 W/m 10,5 km/h (2 Bft)
25.04.2015 11:00 13,1 C 12,2 C 88 % 1008,0 hPa 0,0 l/m 0 min 2 min 293 W/m 10,5 km/h (2 Bft)
25.04.2015 11:02 13,2 C 12,2 C 88 % 1008,0 hPa 0,0 l/m 0 min 2 min 293 W/m 10,5 km/h (2 Bft)
25.04.2015 11:04 13,2 C 12,2 C 88 % 1008,0 hPa 0,0 l/m 0 min 0 min 305 W/m 6,3 km/h (2 Bft)
25.04.2015 11:06 13,3 C 12,8 C 88 % 1008,0 hPa 0,0 l/m 0 min 0 min 314 W/m 12,6 km/h (3 Bft)
25.04.2015 11:08 13,3 C 12,2 C 87 % 1008,0 hPa 0,0 l/m 0 min 0 min 310 W/m 18,8 km/h (3 Bft)
25.04.2015 11:10 13,3 C 12,2 C 87 % 1007,9 hPa 0,0 l/m 0 min 0 min 289 W/m 18,8 km/h (3 Bft)
25.04.2015 11:12 13,4 C 12,2 C 87 % 1008,0 hPa 0,0 l/m 0 min 0 min 270 W/m 8,4 km/h (2 Bft)
25.04.2015 11:14 13,4 C 12,2 C 86 % 1008,0 hPa 0,0 l/m 0 min 0 min 251 W/m 14,6 km/h (3 Bft)
25.04.2015 11:16 13,5 C 12,2 C 87 % 1007,9 hPa 0,0 l/m 0 min 0 min 236 W/m 14,6 km/h (3 Bft)
25.04.2015 11:18 13,6 C 12,2 C 86 % 1007,8 hPa 0,0 l/m 0 min 0 min 221 W/m 14,6 km/h (3 Bft)
25.04.2015 11:20 13,6 C 12,2 C 86 % 1007,8 hPa 0,0 l/m 0 min 0 min 206 W/m 14,6 km/h (3 Bft)
25.04.2015 11:22 13,6 C 12,2 C 86 % 1007,8 hPa 0,0 l/m 0 min 0 min 196 W/m 12,6 km/h (3 Bft)
25.04.2015 11:24 13,6 C 12,2 C 86 % 1007,8 hPa 0,0 l/m 0 min 0 min 192 W/m 14,6 km/h (3 Bft)
25.04.2015 11:26 13,6 C 12,2 C 85 % 1007,8 hPa 0,0 l/m 0 min 0 min 192 W/m 16,7 km/h (3 Bft)
25.04.2015 11:28 13,6 C 12,2 C 85 % 1007,8 hPa 0,0 l/m 0 min 0 min 196 W/m 14,6 km/h (3 Bft)
25.04.2015 11:30 13,7 C 12,2 C 85 % 1007,9 hPa 0,0 l/m 0 min 0 min 200 W/m 14,6 km/h (3 Bft)
25.04.2015 11:32 13,7 C 12,2 C 85 % 1007,8 hPa 0,0 l/m 0 min 0 min 201 W/m 14,6 km/h (3 Bft)
25.04.2015 11:34 13,7 C 12,2 C 85 % 1007,8 hPa 0,0 l/m 0 min 0 min 199 W/m 8,4 km/h (2 Bft)
25.04.2015 11:36 13,7 C 12,2 C 85 % 1007,8 hPa 0,0 l/m 0 min 0 min 197 W/m 14,6 km/h (3 Bft)
25.04.2015 11:38 13,7 C 12,2 C 85 % 1007,8 hPa 0,0 l/m 0 min 0 min 199 W/m 14,6 km/h (3 Bft)
25.04.2015 11:40 13,7 C 12,2 C 85 % 1007,8 hPa 0,0 l/m 0 min 0 min 203 W/m 14,6 km/h (3 Bft)
25.04.2015 11:42 13,8 C 12,8 C 85 % 1007,7 hPa 0,0 l/m 0 min 2 min 212 W/m 10,5 km/h (2 Bft)
25.04.2015 11:44 13,8 C 12,8 C 85 % 1007,8 hPa 0,0 l/m 0 min 2 min 231 W/m 12,6 km/h (3 Bft)
25.04.2015 11:46 13,8 C 12,8 C 85 % 1007,7 hPa 0,0 l/m 0 min 2 min 249 W/m 14,6 km/h (3 Bft)
25.04.2015 11:48 13,9 C 12,8 C 85 % 1007,7 hPa 0,0 l/m 0 min 2 min 263 W/m 16,7 km/h (3 Bft)
25.04.2015 11:50 13,9 C 12,8 C 85 % 1007,7 hPa 0,0 l/m 0 min 0 min 270 W/m 14,6 km/h (3 Bft)
25.04.2015 11:52 14,0 C 12,8 C 85 % 1007,7 hPa 0,0 l/m 0 min 2 min 265 W/m 10,5 km/h (2 Bft)
25.04.2015 11:54 14,0 C 12,8 C 86 % 1007,7 hPa 0,0 l/m 0 min 2 min 256 W/m 8,4 km/h (2 Bft)
25.04.2015 11:56 14,1 C 13,3 C 86 % 1007,7 hPa 0,0 l/m 0 min 0 min 252 W/m 12,6 km/h (3 Bft)
25.04.2015 11:58 14,2 C 12,8 C 86 % 1007,6 hPa 0,0 l/m 0 min 0 min 253 W/m 16,7 km/h (3 Bft)
25.04.2015 12:00 14,2 C 12,8 C 85 % 1007,7 hPa 0,0 l/m 0 min 0 min 255 W/m 14,6 km/h (3 Bft)
25.04.2015 12:02 14,2 C 12,8 C 85 % 1007,6 hPa 0,0 l/m 0 min 0 min 256 W/m 16,7 km/h (3 Bft)
25.04.2015 12:06 14,2 C 12,8 C 85 % 1007,6 hPa 0,0 l/m 0 min 2 min 264 W/m 20,9 km/h (4 Bft)
25.04.2015 12:08 14,2 C 12,8 C 85 % 1007,6 hPa 0,0 l/m 0 min 0 min 273 W/m 16,7 km/h (3 Bft)
25.04.2015 12:10 14,2 C 12,8 C 85 % 1007,6 hPa 0,0 l/m 0 min 0 min 272 W/m 12,6 km/h (3 Bft)
25.04.2015 12:12 14,2 C 12,8 C 85 % 1007,6 hPa 0,0 l/m 0 min 2 min 266 W/m 14,6 km/h (3 Bft)
25.04.2015 12:14 14,2 C 12,8 C 84 % 1007,6 hPa 0,0 l/m 0 min 2 min 264 W/m 12,6 km/h (3 Bft)
25.04.2015 12:16 14,2 C 12,8 C 84 % 1007,6 hPa 0,0 l/m 0 min 2 min 274 W/m 12,6 km/h (3 Bft)
25.04.2015 12:18 14,3 C 12,8 C 84 % 1007,6 hPa 0,0 l/m 0 min 2 min 280 W/m 12,6 km/h (3 Bft)
25.04.2015 12:20 14,3 C 12,8 C 85 % 1007,6 hPa 0,0 l/m 0 min 2 min 274 W/m 12,6 km/h (3 Bft)
25.04.2015 12:22 14,3 C 12,8 C 85 % 1007,6 hPa 0,0 l/m 0 min 2 min 271 W/m 16,7 km/h (3 Bft)
25.04.2015 12:24 14,4 C 12,8 C 85 % 1007,5 hPa 0,0 l/m 0 min 2 min 254 W/m 12,6 km/h (3 Bft)
25.04.2015 12:26 14,4 C 12,8 C 85 % 1007,6 hPa 0,0 l/m 0 min 2 min 240 W/m 10,5 km/h (2 Bft)
25.04.2015 12:28 14,5 C 12,8 C 85 % 1007,6 hPa 0,0 l/m 0 min 2 min 247 W/m 16,7 km/h (3 Bft)
25.04.2015 12:30 14,5 C 12,8 C 85 % 1007,7 hPa 0,0 l/m 0 min 2 min 266 W/m 16,7 km/h (3 Bft)
25.04.2015 12:32 14,5 C 12,8 C 85 % 1007,6 hPa 0,0 l/m 0 min 2 min 280 W/m 18,8 km/h (3 Bft)
25.04.2015 12:34 14,6 C 12,8 C 85 % 1007,6 hPa 0,0 l/m 0 min 2 min 275 W/m 12,6 km/h (3 Bft)
25.04.2015 12:36 14,6 C 12,8 C 85 % 1007,6 hPa 0,0 l/m 0 min 2 min 268 W/m 18,8 km/h (3 Bft)
25.04.2015 12:38 14,6 C 12,8 C 85 % 1007,6 hPa 0,0 l/m 0 min 2 min 301 W/m 14,6 km/h (3 Bft)
25.04.2015 12:40 14,7 C 12,8 C 85 % 1007,5 hPa 0,0 l/m 0 min 2 min 331 W/m 16,7 km/h (3 Bft)
25.04.2015 12:42 14,7 C 12,8 C 85 % 1007,5 hPa 0,0 l/m 0 min 2 min 344 W/m 16,7 km/h (3 Bft)
25.04.2015 12:44 14,7 C 12,8 C 85 % 1007,5 hPa 0,0 l/m 0 min 2 min 329 W/m 16,7 km/h (3 Bft)
25.04.2015 12:46 14,7 C 12,8 C 85 % 1007,5 hPa 0,0 l/m 0 min 2 min 319 W/m 18,8 km/h (3 Bft)
25.04.2015 12:48 14,7 C 12,8 C 85 % 1007,5 hPa 0,0 l/m 0 min 2 min 321 W/m 14,6 km/h (3 Bft)
25.04.2015 12:50 14,8 C 13,3 C 85 % 1007,5 hPa 0,0 l/m 0 min 2 min 316 W/m 10,5 km/h (2 Bft)
25.04.2015 12:52 14,8 C 13,3 C 85 % 1007,5 hPa 0,0 l/m 0 min 2 min 322 W/m 10,5 km/h (2 Bft)
25.04.2015 12:54 14,8 C 13,3 C 86 % 1007,5 hPa 0,0 l/m 0 min 2 min 352 W/m 12,6 km/h (3 Bft)
25.04.2015 12:56 14,9 C 13,3 C 86 % 1007,5 hPa 0,0 l/m 0 min 2 min 352 W/m 14,6 km/h (3 Bft)
25.04.2015 12:58 15,0 C 13,3 C 86 % 1007,5 hPa 0,0 l/m 0 min 2 min 352 W/m 12,6 km/h (3 Bft)
25.04.2015 13:00 15,0 C 13,3 C 86 % 1007,5 hPa 0,0 l/m 0 min 2 min 352 W/m 10,5 km/h (2 Bft)
25.04.2015 13:02 15,1 C 13,3 C 86 % 1007,5 hPa 0,0 l/m 0 min 2 min 337 W/m 12,6 km/h (3 Bft)
25.04.2015 13:04 15,1 C 13,3 C 86 % 1007,4 hPa 0,0 l/m 0 min 2 min 341 W/m 12,6 km/h (3 Bft)
25.04.2015 13:06 15,1 C 13,3 C 86 % 1007,4 hPa 0,0 l/m 0 min 2 min 338 W/m 14,6 km/h (3 Bft)
25.04.2015 13:08 15,2 C 13,3 C 85 % 1007,4 hPa 0,0 l/m 0 min 2 min 332 W/m 12,6 km/h (3 Bft)
25.04.2015 13:10 15,2 C 13,3 C 85 % 1007,4 hPa 0,0 l/m 0 min 2 min 310 W/m 18,8 km/h (3 Bft)
25.04.2015 13:12 15,2 C 13,3 C 85 % 1007,3 hPa 0,0 l/m 0 min 2 min 299 W/m 14,6 km/h (3 Bft)
25.04.2015 13:14 15,2 C 13,3 C 85 % 1007,3 hPa 0,0 l/m 0 min 2 min 290 W/m 10,5 km/h (2 Bft)
25.04.2015 13:16 15,3 C 13,3 C 85 % 1007,2 hPa 0,0 l/m 0 min 2 min 278 W/m 14,6 km/h (3 Bft)
25.04.2015 13:18 15,3 C 13,3 C 84 % 1007,2 hPa 0,0 l/m 0 min 2 min 270 W/m 14,6 km/h (3 Bft)
25.04.2015 13:20 15,3 C 13,3 C 84 % 1007,3 hPa 0,0 l/m 0 min 2 min 272 W/m 16,7 km/h (3 Bft)
25.04.2015 13:22 15,3 C 13,3 C 83 % 1007,2 hPa 0,0 l/m 0 min 2 min 278 W/m 14,6 km/h (3 Bft)
25.04.2015 13:24 15,2 C 13,3 C 82 % 1007,2 hPa 0,0 l/m 0 min 2 min 286 W/m 14,6 km/h (3 Bft)
25.04.2015 13:26 15,3 C 13,3 C 82 % 1007,2 hPa 0,0 l/m 0 min 2 min 292 W/m 14,6 km/h (3 Bft)
25.04.2015 13:28 15,3 C 13,3 C 83 % 1007,2 hPa 0,0 l/m 0 min 2 min 285 W/m 14,6 km/h (3 Bft)
25.04.2015 13:30 15,3 C 13,3 C 83 % 1007,2 hPa 0,0 l/m 0 min 0 min 264 W/m 14,6 km/h (3 Bft)
25.04.2015 13:32 15,3 C 13,3 C 82 % 1007,1 hPa 0,0 l/m 0 min 2 min 233 W/m 18,8 km/h (3 Bft)
25.04.2015 13:34 15,3 C 13,3 C 82 % 1007,1 hPa 0,0 l/m 0 min 2 min 210 W/m 16,7 km/h (3 Bft)
25.04.2015 13:36 15,3 C 12,8 C 82 % 1007,1 hPa 0,0 l/m 0 min 2 min 206 W/m 14,6 km/h (3 Bft)
25.04.2015 13:38 15,3 C 12,8 C 82 % 1007,1 hPa 0,0 l/m 0 min 2 min 204 W/m 12,6 km/h (3 Bft)
25.04.2015 13:40 15,3 C 12,8 C 82 % 1007,1 hPa 0,0 l/m 0 min 2 min 188 W/m 8,4 km/h (2 Bft)
25.04.2015 13:42 15,3 C 13,3 C 82 % 1007,1 hPa 0,0 l/m 0 min 2 min 168 W/m 10,5 km/h (2 Bft)
25.04.2015 13:44 15,3 C 12,8 C 83 % 1007,1 hPa 0,0 l/m 0 min 2 min 152 W/m 12,6 km/h (3 Bft)
25.04.2015 13:46 15,3 C 12,8 C 83 % 1007,1 hPa 0,0 l/m 0 min 2 min 140 W/m 10,5 km/h (2 Bft)
25.04.2015 13:48 15,3 C 12,8 C 83 % 1007,1 hPa 0,0 l/m 0 min 2 min 135 W/m 8,4 km/h (2 Bft)
25.04.2015 13:50 15,3 C 12,8 C 83 % 1007,1 hPa 0,0 l/m 0 min 2 min 144 W/m 12,6 km/h (3 Bft)
25.04.2015 13:52 15,2 C 12,8 C 83 % 1007,0 hPa 0,0 l/m 0 min 2 min 157 W/m 14,6 km/h (3 Bft)
25.04.2015 13:54 15,2 C 12,8 C 83 % 1007,0 hPa 0,0 l/m 0 min 2 min 176 W/m 6,3 km/h (2 Bft)
25.04.2015 13:56 15,2 C 12,8 C 83 % 1007,0 hPa 0,0 l/m 0 min 2 min 204 W/m 10,5 km/h (2 Bft)
25.04.2015 13:58 15,2 C 12,8 C 83 % 1007,0 hPa 0,0 l/m 0 min 2 min 237 W/m 8,4 km/h (2 Bft)
25.04.2015 14:00 15,2 C 12,8 C 83 % 1007,0 hPa 0,0 l/m 0 min 2 min 259 W/m 14,6 km/h (3 Bft)
25.04.2015 14:02 15,2 C 13,3 C 84 % 1007,1 hPa 0,0 l/m 0 min 2 min 259 W/m 12,6 km/h (3 Bft)
25.04.2015 14:04 15,2 C 13,3 C 84 % 1007,1 hPa 0,0 l/m 0 min 2 min 264 W/m 12,6 km/h (3 Bft)
25.04.2015 14:06 15,2 C 13,3 C 84 % 1007,0 hPa 0,0 l/m 0 min 2 min 285 W/m 12,6 km/h (3 Bft)
25.04.2015 14:08 15,2 C 13,3 C 83 % 1007,0 hPa 0,0 l/m 0 min 2 min 299 W/m 10,5 km/h (2 Bft)
25.04.2015 14:10 15,2 C 13,3 C 84 % 1007,0 hPa 0,0 l/m 0 min 2 min 311 W/m 8,4 km/h (2 Bft)
25.04.2015 14:12 15,2 C 13,3 C 84 % 1007,1 hPa 0,0 l/m 0 min 2 min 328 W/m 16,7 km/h (3 Bft)
25.04.2015 14:14 15,2 C 13,3 C 83 % 1007,0 hPa 0,0 l/m 0 min 2 min 324 W/m 12,6 km/h (3 Bft)
25.04.2015 14:16 15,3 C 13,3 C 83 % 1007,1 hPa 0,0 l/m 0 min 2 min 320 W/m 14,6 km/h (3 Bft)
25.04.2015 14:18 15,3 C 13,9 C 83 % 1007,0 hPa 0,0 l/m 0 min 2 min 314 W/m 16,7 km/h (3 Bft)
25.04.2015 14:20 15,3 C 13,3 C 83 % 1007,1 hPa 0,0 l/m 0 min 2 min 304 W/m 16,7 km/h (3 Bft)
25.04.2015 14:22 15,3 C 13,3 C 83 % 1007,0 hPa 0,0 l/m 0 min 2 min 308 W/m 18,8 km/h (3 Bft)
25.04.2015 14:24 15,3 C 13,3 C 83 % 1007,0 hPa 0,2 l/m 0 min 2 min 321 W/m 18,8 km/h (3 Bft)
25.04.2015 14:26 15,4 C 13,3 C 83 % 1007,1 hPa 0,0 l/m 0 min 2 min 335 W/m 18,8 km/h (3 Bft)
25.04.2015 14:28 15,3 C 13,3 C 83 % 1007,0 hPa 0,0 l/m 0 min 2 min 335 W/m 14,6 km/h (3 Bft)
25.04.2015 14:30 15,4 C 13,3 C 83 % 1007,0 hPa 0,0 l/m 0 min 2 min 325 W/m 23,0 km/h (4 Bft)
25.04.2015 14:32 15,4 C 13,3 C 83 % 1007,1 hPa 0,0 l/m 0 min 2 min 338 W/m 14,6 km/h (3 Bft)
25.04.2015 14:34 15,4 C 13,3 C 83 % 1007,0 hPa 0,0 l/m 0 min 2 min 360 W/m 16,7 km/h (3 Bft)
25.04.2015 14:36 15,4 C 13,3 C 84 % 1007,0 hPa 0,0 l/m 2 min 2 min 391 W/m 16,7 km/h (3 Bft)
25.04.2015 14:38 15,4 C 13,9 C 84 % 1007,1 hPa 0,0 l/m 2 min 2 min 381 W/m 18,8 km/h (3 Bft)
25.04.2015 14:40 15,4 C 13,9 C 84 % 1007,0 hPa 0,0 l/m 0 min 0 min 346 W/m 23,0 km/h (4 Bft)
25.04.2015 14:42 15,5 C 13,9 C 85 % 1007,0 hPa 0,0 l/m 0 min 2 min 345 W/m 18,8 km/h (3 Bft)
25.04.2015 14:44 15,5 C 13,9 C 85 % 1007,0 hPa 0,0 l/m 0 min 0 min 359 W/m 12,6 km/h (3 Bft)
25.04.2015 14:46 15,5 C 13,9 C 84 % 1007,0 hPa 0,0 l/m 2 min 2 min 443 W/m 18,8 km/h (3 Bft)
25.04.2015 14:48 15,5 C 13,9 C 84 % 1007,0 hPa 0,0 l/m 2 min 2 min 451 W/m 14,6 km/h (3 Bft)
25.04.2015 14:50 15,6 C 13,9 C 85 % 1006,9 hPa 0,0 l/m 2 min 0 min 478 W/m 18,8 km/h (3 Bft)
25.04.2015 14:52 15,6 C 14,4 C 84 % 1006,9 hPa 0,0 l/m 2 min 0 min 517 W/m 16,7 km/h (3 Bft)
25.04.2015 14:54 15,7 C 14,4 C 84 % 1006,9 hPa 0,0 l/m 2 min 0 min 521 W/m 16,7 km/h (3 Bft)
25.04.2015 14:56 15,8 C 14,4 C 84 % 1006,9 hPa 0,0 l/m 2 min 0 min 494 W/m 16,7 km/h (3 Bft)
25.04.2015 14:58 15,9 C 14,4 C 84 % 1006,9 hPa 0,0 l/m 2 min 0 min 515 W/m 18,8 km/h (3 Bft)
25.04.2015 15:00 15,9 C 14,4 C 83 % 1006,9 hPa 0,0 l/m 2 min 0 min 541 W/m 16,7 km/h (3 Bft)
25.04.2015 15:02 16,0 C 14,4 C 82 % 1006,9 hPa 0,0 l/m 2 min 0 min 499 W/m 14,6 km/h (3 Bft)
25.04.2015 15:04 16,1 C 15,0 C 82 % 1006,9 hPa 0,0 l/m 2 min 0 min 524 W/m 14,6 km/h (3 Bft)
25.04.2015 15:06 16,2 C 15,0 C 82 % 1006,8 hPa 0,0 l/m 2 min 0 min 520 W/m 14,6 km/h (3 Bft)
25.04.2015 15:08 16,3 C 15,0 C 82 % 1006,8 hPa 0,0 l/m 2 min 0 min 458 W/m 10,5 km/h (2 Bft)
25.04.2015 15:10 16,3 C 15,0 C 81 % 1006,8 hPa 0,0 l/m 0 min 0 min 290 W/m 14,6 km/h (3 Bft)
25.04.2015 15:12 16,4 C 15,0 C 80 % 1006,8 hPa 0,0 l/m 0 min 0 min 232 W/m 14,6 km/h (3 Bft)
25.04.2015 15:14 16,4 C 14,4 C 79 % 1006,8 hPa 0,0 l/m 0 min 0 min 188 W/m 18,8 km/h (3 Bft)
25.04.2015 15:16 16,4 C 14,4 C 79 % 1006,8 hPa 0,0 l/m 0 min 0 min 147 W/m 18,8 km/h (3 Bft)
25.04.2015 15:18 16,4 C 13,9 C 79 % 1006,8 hPa 0,0 l/m 0 min 0 min 114 W/m 10,5 km/h (2 Bft)
25.04.2015 15:20 16,3 C 13,9 C 78 % 1006,8 hPa 0,0 l/m 0 min 0 min 90 W/m 14,6 km/h (3 Bft)
25.04.2015 15:22 16,3 C 13,3 C 78 % 1006,8 hPa 0,0 l/m 0 min 0 min 67 W/m 14,6 km/h (3 Bft)
25.04.2015 15:24 16,2 C 13,3 C 77 % 1006,8 hPa 0,0 l/m 0 min 0 min 52 W/m 18,8 km/h (3 Bft)
25.04.2015 15:26 16,1 C 13,3 C 77 % 1006,8 hPa 0,0 l/m 0 min 0 min 53 W/m 16,7 km/h (3 Bft)
25.04.2015 15:28 16,1 C 12,8 C 77 % 1006,8 hPa 0,0 l/m 0 min 2 min 54 W/m 16,7 km/h (3 Bft)
25.04.2015 15:30 15,9 C 12,8 C 77 % 1006,8 hPa 0,0 l/m 0 min 2 min 49 W/m 23,0 km/h (4 Bft)
25.04.2015 15:32 15,8 C 12,8 C 77 % 1006,9 hPa 0,0 l/m 0 min 2 min 57 W/m 14,6 km/h (3 Bft)
25.04.2015 15:34 15,7 C 12,2 C 77 % 1006,9 hPa 0,0 l/m 0 min 2 min 59 W/m 16,7 km/h (3 Bft)
25.04.2015 15:36 15,6 C 12,2 C 78 % 1006,9 hPa 0,0 l/m 0 min 2 min 53 W/m 20,9 km/h (4 Bft)
25.04.2015 15:38 15,4 C 11,7 C 79 % 1007,0 hPa 0,0 l/m 0 min 2 min 60 W/m 25,1 km/h (4 Bft)
25.04.2015 15:40 15,3 C 11,7 C 80 % 1007,0 hPa 0,2 l/m 0 min 2 min 77 W/m 27,2 km/h (4 Bft)
25.04.2015 15:42 15,1 C 11,7 C 81 % 1007,1 hPa 0,0 l/m 0 min 2 min 105 W/m 18,8 km/h (3 Bft)
25.04.2015 15:44 15,0 C 11,7 C 81 % 1007,0 hPa 0,0 l/m 0 min 0 min 133 W/m 16,7 km/h (3 Bft)
25.04.2015 15:46 14,9 C 12,2 C 82 % 1007,0 hPa 0,0 l/m 0 min 0 min 165 W/m 16,7 km/h (3 Bft)
25.04.2015 15:48 14,8 C 12,2 C 83 % 1007,0 hPa 0,0 l/m 0 min 0 min 213 W/m 12,6 km/h (3 Bft)
25.04.2015 15:50 14,8 C 12,2 C 83 % 1007,0 hPa 0,0 l/m 0 min 0 min 279 W/m 16,7 km/h (3 Bft)
25.04.2015 15:52 14,7 C 12,8 C 83 % 1006,9 hPa 0,0 l/m 0 min 0 min 296 W/m 16,7 km/h (3 Bft)
25.04.2015 15:54 14,7 C 12,8 C 84 % 1006,9 hPa 0,0 l/m 0 min 0 min 280 W/m 16,7 km/h (3 Bft)
25.04.2015 15:56 14,6 C 12,8 C 84 % 1006,8 hPa 0,0 l/m 0 min 0 min 272 W/m 12,6 km/h (3 Bft)
25.04.2015 15:58 14,7 C 12,8 C 84 % 1006,8 hPa 0,0 l/m 0 min 0 min 288 W/m 10,5 km/h (2 Bft)
25.04.2015 16:00 14,7 C 13,3 C 85 % 1006,8 hPa 0,0 l/m 0 min 0 min 312 W/m 8,4 km/h (2 Bft)
25.04.2015 16:02 14,7 C 13,3 C 85 % 1006,7 hPa 0,0 l/m 0 min 0 min 301 W/m 14,6 km/h (3 Bft)
25.04.2015 16:04 14,7 C 13,3 C 85 % 1006,8 hPa 0,0 l/m 0 min 0 min 280 W/m 18,8 km/h (3 Bft)
25.04.2015 16:06 14,7 C 13,3 C 85 % 1006,7 hPa 0,0 l/m 0 min 0 min 277 W/m 18,8 km/h (3 Bft)
25.04.2015 16:08 14,8 C 13,3 C 84 % 1006,8 hPa 0,0 l/m 0 min 0 min 278 W/m 16,7 km/h (3 Bft)
25.04.2015 16:10 14,8 C 13,3 C 84 % 1006,7 hPa 0,0 l/m 0 min 0 min 269 W/m 23,0 km/h (4 Bft)
25.04.2015 16:12 14,8 C 13,3 C 84 % 1006,7 hPa 0,0 l/m 0 min 0 min 248 W/m 20,9 km/h (4 Bft)
25.04.2015 16:14 14,9 C 13,3 C 84 % 1006,7 hPa 0,0 l/m 0 min 0 min 223 W/m 20,9 km/h (4 Bft)
25.04.2015 16:16 14,9 C 13,3 C 83 % 1006,7 hPa 0,0 l/m 0 min 0 min 209 W/m 16,7 km/h (3 Bft)
25.04.2015 16:18 15,0 C 13,3 C 83 % 1006,7 hPa 0,0 l/m 0 min 0 min 193 W/m 14,6 km/h (3 Bft)
25.04.2015 16:20 15,0 C 13,3 C 84 % 1006,7 hPa 0,0 l/m 0 min 0 min 160 W/m 14,6 km/h (3 Bft)
25.04.2015 16:22 15,1 C 13,3 C 84 % 1006,7 hPa 0,0 l/m 0 min 0 min 120 W/m 20,9 km/h (4 Bft)
25.04.2015 16:24 15,1 C 12,8 C 84 % 1006,7 hPa 0,0 l/m 0 min 0 min 83 W/m 18,8 km/h (3 Bft)
25.04.2015 16:26 15,1 C 12,8 C 84 % 1006,7 hPa 0,0 l/m 0 min 0 min 67 W/m 12,6 km/h (3 Bft)
25.04.2015 16:28 15,1 C 12,8 C 84 % 1006,7 hPa 0,0 l/m 0 min 0 min 68 W/m 12,6 km/h (3 Bft)
25.04.2015 16:30 15,1 C 12,8 C 84 % 1006,7 hPa 0,0 l/m 0 min 0 min 80 W/m 14,6 km/h (3 Bft)
25.04.2015 16:32 15,1 C 12,8 C 84 % 1006,8 hPa 0,0 l/m 0 min 2 min 96 W/m 18,8 km/h (3 Bft)
25.04.2015 16:34 15,1 C 12,8 C 84 % 1006,8 hPa 0,0 l/m 0 min 0 min 103 W/m 16,7 km/h (3 Bft)
25.04.2015 16:36 15,1 C 12,8 C 84 % 1006,8 hPa 0,0 l/m 0 min 0 min 83 W/m 12,6 km/h (3 Bft)
25.04.2015 16:38 15,1 C 12,8 C 83 % 1006,8 hPa 0,0 l/m 0 min 0 min 76 W/m 18,8 km/h (3 Bft)
25.04.2015 16:40 15,0 C 12,8 C 83 % 1006,7 hPa 0,0 l/m 0 min 0 min 96 W/m 18,8 km/h (3 Bft)
25.04.2015 16:42 14,9 C 12,8 C 83 % 1006,8 hPa 0,0 l/m 0 min 0 min 101 W/m 16,7 km/h (3 Bft)
25.04.2015 16:44 14,9 C 12,8 C 83 % 1006,8 hPa 0,0 l/m 0 min 0 min 111 W/m 14,6 km/h (3 Bft)
25.04.2015 16:46 14,9 C 12,8 C 83 % 1006,8 hPa 0,0 l/m 0 min 0 min 136 W/m 18,8 km/h (3 Bft)
25.04.2015 16:48 14,9 C 12,8 C 83 % 1006,8 hPa 0,0 l/m 0 min 0 min 172 W/m 16,7 km/h (3 Bft)
25.04.2015 16:50 14,9 C 12,8 C 83 % 1006,8 hPa 0,0 l/m 0 min 0 min 212 W/m 16,7 km/h (3 Bft)
25.04.2015 16:52 14,9 C 13,3 C 84 % 1006,7 hPa 0,0 l/m 0 min 0 min 255 W/m 14,6 km/h (3 Bft)
25.04.2015 16:54 14,9 C 13,3 C 84 % 1006,7 hPa 0,0 l/m 0 min 0 min 240 W/m 14,6 km/h (3 Bft)
25.04.2015 16:56 15,0 C 13,3 C 84 % 1006,7 hPa 0,0 l/m 0 min 0 min 189 W/m 12,6 km/h (3 Bft)
25.04.2015 16:58 15,0 C 13,3 C 84 % 1006,7 hPa 0,0 l/m 0 min 0 min 156 W/m 12,6 km/h (3 Bft)
25.04.2015 17:00 15,1 C 13,3 C 84 % 1006,7 hPa 0,0 l/m 0 min 2 min 142 W/m 18,8 km/h (3 Bft)
25.04.2015 17:02 15,1 C 13,3 C 84 % 1006,7 hPa 0,0 l/m 0 min 0 min 122 W/m 20,9 km/h (4 Bft)
25.04.2015 17:04 15,1 C 13,3 C 84 % 1006,8 hPa 0,0 l/m 0 min 2 min 93 W/m 16,7 km/h (3 Bft)
25.04.2015 17:06 15,1 C 12,8 C 84 % 1006,8 hPa 0,0 l/m 0 min 2 min 69 W/m 14,6 km/h (3 Bft)
25.04.2015 17:08 15,1 C 12,8 C 84 % 1006,8 hPa 0,0 l/m 0 min 2 min 60 W/m 16,7 km/h (3 Bft)
25.04.2015 17:10 15,1 C 12,8 C 84 % 1006,8 hPa 0,0 l/m 0 min 2 min 52 W/m 18,8 km/h (3 Bft)
25.04.2015 17:12 15,1 C 12,2 C 84 % 1006,9 hPa 0,0 l/m 0 min 2 min 43 W/m 14,6 km/h (3 Bft)
25.04.2015 17:14 15,0 C 12,2 C 84 % 1006,8 hPa 0,0 l/m 0 min 2 min 45 W/m 14,6 km/h (3 Bft)
25.04.2015 17:16 14,9 C 12,2 C 85 % 1006,9 hPa 0,0 l/m 0 min 2 min 58 W/m 12,6 km/h (3 Bft)
25.04.2015 17:18 14,9 C 12,2 C 85 % 1006,8 hPa 0,0 l/m 0 min 2 min 83 W/m 23,0 km/h (4 Bft)
25.04.2015 17:20 14,9 C 12,2 C 85 % 1006,8 hPa 0,0 l/m 0 min 2 min 117 W/m 20,9 km/h (4 Bft)
25.04.2015 17:22 14,8 C 12,2 C 86 % 1006,8 hPa 0,0 l/m 0 min 2 min 146 W/m 20,9 km/h (4 Bft)
25.04.2015 17:24 14,8 C 12,8 C 86 % 1006,7 hPa 0,0 l/m 0 min 0 min 155 W/m 14,6 km/h (3 Bft)
25.04.2015 17:26 14,8 C 12,8 C 86 % 1006,8 hPa 0,0 l/m 0 min 0 min 161 W/m 14,6 km/h (3 Bft)
25.04.2015 17:28 14,7 C 12,2 C 87 % 1006,8 hPa 0,0 l/m 0 min 0 min 174 W/m 16,7 km/h (3 Bft)
25.04.2015 17:30 14,7 C 12,8 C 87 % 1006,7 hPa 0,0 l/m 0 min 0 min 197 W/m 14,6 km/h (3 Bft)
25.04.2015 17:32 14,7 C 12,8 C 87 % 1006,7 hPa 0,0 l/m 2 min 0 min 244 W/m 14,6 km/h (3 Bft)
25.04.2015 17:34 14,7 C 12,8 C 88 % 1006,7 hPa 0,0 l/m 2 min 0 min 306 W/m 12,6 km/h (3 Bft)
25.04.2015 17:36 14,7 C 13,3 C 88 % 1006,7 hPa 0,0 l/m 2 min 0 min 311 W/m 12,6 km/h (3 Bft)
25.04.2015 17:38 14,8 C 13,3 C 88 % 1006,7 hPa 0,0 l/m 2 min 0 min 349 W/m 10,5 km/h (2 Bft)
25.04.2015 17:40 14,8 C 13,3 C 88 % 1006,7 hPa 0,0 l/m 2 min 0 min 257 W/m 14,6 km/h (3 Bft)
25.04.2015 17:42 14,8 C 13,3 C 88 % 1006,7 hPa 0,0 l/m 2 min 0 min 241 W/m 16,7 km/h (3 Bft)
25.04.2015 17:44 14,8 C 13,3 C 88 % 1006,7 hPa 0,0 l/m 2 min 0 min 255 W/m 10,5 km/h (2 Bft)
25.04.2015 17:46 14,9 C 13,3 C 88 % 1006,7 hPa 0,0 l/m 2 min 0 min 371 W/m 14,6 km/h (3 Bft)
25.04.2015 17:48 14,9 C 13,3 C 88 % 1006,6 hPa 0,0 l/m 2 min 0 min 545 W/m 12,6 km/h (3 Bft)
25.04.2015 17:50 15,0 C 13,3 C 88 % 1006,8 hPa 0,0 l/m 2 min 0 min 351 W/m 16,7 km/h (3 Bft)
25.04.2015 17:52 15,1 C 13,3 C 88 % 1006,7 hPa 0,0 l/m 2 min 0 min 260 W/m 16,7 km/h (3 Bft)
25.04.2015 17:54 15,1 C 13,3 C 88 % 1006,7 hPa 0,0 l/m 2 min 0 min 257 W/m 8,4 km/h (2 Bft)
25.04.2015 17:56 15,2 C 13,3 C 88 % 1006,6 hPa 0,0 l/m 2 min 0 min 265 W/m 14,6 km/h (3 Bft)
25.04.2015 17:58 15,2 C 13,3 C 88 % 1006,6 hPa 0,0 l/m 2 min 0 min 323 W/m 12,6 km/h (3 Bft)
25.04.2015 18:00 15,3 C 13,3 C 87 % 1006,6 hPa 0,0 l/m 2 min 0 min 440 W/m 8,4 km/h (2 Bft)
25.04.2015 18:02 15,3 C 13,3 C 87 % 1006,6 hPa 0,0 l/m 2 min 0 min 427 W/m 16,7 km/h (3 Bft)
25.04.2015 18:06 15,4 C 13,3 C 85 % 1006,6 hPa 0,0 l/m 2 min 0 min 369 W/m 16,7 km/h (3 Bft)
25.04.2015 18:08 15,4 C 13,3 C 84 % 1006,6 hPa 0,0 l/m 2 min 0 min 367 W/m 14,6 km/h (3 Bft)
25.04.2015 18:10 15,5 C 13,3 C 84 % 1006,7 hPa 0,0 l/m 2 min 0 min 314 W/m 27,2 km/h (4 Bft)
25.04.2015 18:12 15,5 C 13,3 C 83 % 1006,8 hPa 0,0 l/m 2 min 0 min 231 W/m 31,4 km/h (5 Bft)
25.04.2015 18:14 15,5 C 13,3 C 82 % 1006,8 hPa 0,0 l/m 0 min 0 min 137 W/m 20,9 km/h (4 Bft)
25.04.2015 18:16 15,5 C 12,8 C 81 % 1006,8 hPa 0,0 l/m 0 min 0 min 143 W/m 20,9 km/h (4 Bft)
25.04.2015 18:18 15,5 C 12,8 C 80 % 1006,8 hPa 0,0 l/m 0 min 0 min 146 W/m 18,8 km/h (3 Bft)
25.04.2015 18:20 15,5 C 12,8 C 80 % 1006,8 hPa 0,0 l/m 0 min 0 min 120 W/m 16,7 km/h (3 Bft)
25.04.2015 18:22 15,5 C 12,8 C 80 % 1006,8 hPa 0,0 l/m 0 min 0 min 119 W/m 20,9 km/h (4 Bft)
25.04.2015 18:24 15,4 C 12,8 C 81 % 1006,8 hPa 0,0 l/m 0 min 0 min 136 W/m 10,5 km/h (2 Bft)
25.04.2015 18:26 15,5 C 13,3 C 81 % 1006,7 hPa 0,0 l/m 0 min 0 min 146 W/m 14,6 km/h (3 Bft)
25.04.2015 18:28 15,4 C 13,3 C 81 % 1006,8 hPa 0,0 l/m 0 min 0 min 162 W/m 12,6 km/h (3 Bft)
25.04.2015 18:30 15,4 C 13,3 C 81 % 1006,7 hPa 0,0 l/m 0 min 0 min 164 W/m 14,6 km/h (3 Bft)
25.04.2015 18:32 15,4 C 13,3 C 81 % 1006,7 hPa 0,0 l/m 2 min 0 min 169 W/m 12,6 km/h (3 Bft)
25.04.2015 18:34 15,4 C 13,3 C 80 % 1006,7 hPa 0,0 l/m 2 min 0 min 170 W/m 14,6 km/h (3 Bft)
25.04.2015 18:36 15,4 C 13,3 C 80 % 1006,6 hPa 0,0 l/m 2 min 0 min 167 W/m 8,4 km/h (2 Bft)
25.04.2015 18:38 15,4 C 13,3 C 81 % 1006,6 hPa 0,0 l/m 0 min 0 min 154 W/m 8,4 km/h (2 Bft)
25.04.2015 18:40 15,4 C 13,3 C 81 % 1006,6 hPa 0,0 l/m 2 min 0 min 156 W/m 10,5 km/h (2 Bft)
25.04.2015 18:42 15,4 C 13,3 C 81 % 1006,6 hPa 0,0 l/m 2 min 0 min 176 W/m 8,4 km/h (2 Bft)
25.04.2015 18:44 15,5 C 13,3 C 81 % 1006,6 hPa 0,0 l/m 0 min 0 min 141 W/m 8,4 km/h (2 Bft)
25.04.2015 18:46 15,5 C 13,3 C 81 % 1006,7 hPa 0,0 l/m 0 min 0 min 129 W/m 8,4 km/h (2 Bft)
25.04.2015 18:48 15,5 C 13,3 C 81 % 1006,7 hPa 0,0 l/m 0 min 0 min 121 W/m 6,3 km/h (2 Bft)
25.04.2015 18:50 15,5 C 13,3 C 81 % 1006,7 hPa 0,0 l/m 0 min 0 min 113 W/m 8,4 km/h (2 Bft)
25.04.2015 18:52 15,5 C 13,3 C 81 % 1006,7 hPa 0,0 l/m 0 min 0 min 111 W/m 2,1 km/h (1 Bft)
25.04.2015 18:54 15,5 C 13,3 C 81 % 1006,7 hPa 0,0 l/m 0 min 0 min 119 W/m 6,3 km/h (2 Bft)
25.04.2015 18:56 15,5 C 13,3 C 81 % 1006,6 hPa 0,0 l/m 2 min 0 min 138 W/m 8,4 km/h (2 Bft)
25.04.2015 18:58 15,6 C 13,3 C 81 % 1006,6 hPa 0,0 l/m 2 min 0 min 200 W/m 6,3 km/h (2 Bft)
25.04.2015 19:00 15,6 C 13,3 C 81 % 1006,6 hPa 0,0 l/m 2 min 0 min 189 W/m 6,3 km/h (2 Bft)
25.04.2015 19:02 15,6 C 13,3 C 81 % 1006,6 hPa 0,0 l/m 2 min 0 min 216 W/m 6,3 km/h (2 Bft)
25.04.2015 19:04 15,6 C 13,3 C 81 % 1006,5 hPa 0,0 l/m 2 min 0 min 234 W/m 4,2 km/h (1 Bft)
25.04.2015 19:06 15,6 C 13,9 C 81 % 1006,5 hPa 0,0 l/m 2 min 0 min 176 W/m 4,2 km/h (1 Bft)
25.04.2015 19:08 15,6 C 13,3 C 81 % 1006,5 hPa 0,0 l/m 2 min 0 min 125 W/m 6,3 km/h (2 Bft)
25.04.2015 19:10 15,6 C 13,3 C 81 % 1006,5 hPa 0,0 l/m 0 min 0 min 110 W/m 8,4 km/h (2 Bft)
25.04.2015 19:12 15,6 C 13,3 C 81 % 1006,5 hPa 0,0 l/m 0 min 0 min 99 W/m 8,4 km/h (2 Bft)
25.04.2015 19:14 15,6 C 13,3 C 81 % 1006,5 hPa 0,0 l/m 0 min 0 min 91 W/m 6,3 km/h (2 Bft)
25.04.2015 19:16 15,6 C 13,3 C 81 % 1006,5 hPa 0,0 l/m 0 min 0 min 83 W/m 4,2 km/h (1 Bft)
25.04.2015 19:18 15,6 C 13,3 C 81 % 1006,5 hPa 0,0 l/m 0 min 0 min 79 W/m 4,2 km/h (1 Bft)
25.04.2015 19:20 15,7 C 13,3 C 81 % 1006,5 hPa 0,0 l/m 0 min 0 min 77 W/m 6,3 km/h (2 Bft)
25.04.2015 19:22 15,7 C 13,3 C 81 % 1006,5 hPa 0,0 l/m 0 min 0 min 76 W/m 6,3 km/h (2 Bft)
25.04.2015 19:24 15,7 C 13,3 C 81 % 1006,5 hPa 0,0 l/m 0 min 0 min 72 W/m 6,3 km/h (2 Bft)
25.04.2015 19:26 15,7 C 13,3 C 81 % 1006,5 hPa 0,0 l/m 0 min 0 min 67 W/m 6,3 km/h (2 Bft)
25.04.2015 19:28 15,7 C 13,3 C 81 % 1006,5 hPa 0,0 l/m 0 min 0 min 65 W/m 4,2 km/h (1 Bft)
25.04.2015 19:30 15,7 C 13,3 C 81 % 1006,5 hPa 0,0 l/m 0 min 0 min 66 W/m 2,1 km/h (1 Bft)
25.04.2015 19:32 15,7 C 13,3 C 81 % 1006,5 hPa 0,0 l/m 0 min 0 min 66 W/m 2,1 km/h (1 Bft)
25.04.2015 19:34 15,7 C 13,3 C 81 % 1006,5 hPa 0,0 l/m 0 min 0 min 61 W/m 4,2 km/h (1 Bft)
25.04.2015 19:36 15,7 C 13,3 C 81 % 1006,6 hPa 0,0 l/m 0 min 0 min 59 W/m 4,2 km/h (1 Bft)
25.04.2015 19:38 15,7 C 13,3 C 81 % 1006,6 hPa 0,0 l/m 0 min 0 min 56 W/m 6,3 km/h (2 Bft)
25.04.2015 19:40 15,7 C 12,8 C 81 % 1006,6 hPa 0,0 l/m 0 min 0 min 56 W/m 6,3 km/h (2 Bft)
25.04.2015 19:42 15,7 C 12,8 C 81 % 1006,6 hPa 0,0 l/m 0 min 0 min 52 W/m 4,2 km/h (1 Bft)
25.04.2015 19:44 15,7 C 12,8 C 81 % 1006,6 hPa 0,0 l/m 0 min 0 min 45 W/m 4,2 km/h (1 Bft)
25.04.2015 19:46 15,7 C 12,8 C 81 % 1006,6 hPa 0,0 l/m 0 min 0 min 34 W/m 4,2 km/h (1 Bft)
25.04.2015 19:48 15,7 C 12,8 C 81 % 1006,6 hPa 0,0 l/m 0 min 0 min 28 W/m 8,4 km/h (2 Bft)
25.04.2015 19:50 15,6 C 12,8 C 81 % 1006,6 hPa 0,0 l/m 0 min 0 min 25 W/m 10,5 km/h (2 Bft)
25.04.2015 19:52 15,6 C 12,8 C 81 % 1006,6 hPa 0,0 l/m 0 min 0 min 22 W/m 10,5 km/h (2 Bft)
25.04.2015 19:54 15,6 C 12,8 C 81 % 1006,5 hPa 0,0 l/m 0 min 0 min 20 W/m 6,3 km/h (2 Bft)
25.04.2015 19:56 15,6 C 12,8 C 80 % 1006,6 hPa 0,0 l/m 0 min 0 min 20 W/m 6,3 km/h (2 Bft)
25.04.2015 19:58 15,6 C 12,8 C 80 % 1006,6 hPa 0,0 l/m 0 min 0 min 21 W/m 6,3 km/h (2 Bft)
25.04.2015 20:00 15,6 C 12,8 C 80 % 1006,5 hPa 0,0 l/m 0 min 0 min 23 W/m 8,4 km/h (2 Bft)
25.04.2015 20:02 15,5 C 12,8 C 80 % 1006,5 hPa 0,0 l/m 0 min 0 min 25 W/m 6,3 km/h (2 Bft)
25.04.2015 20:04 15,5 C 12,8 C 80 % 1006,5 hPa 0,0 l/m 0 min 0 min 25 W/m 6,3 km/h (2 Bft)
25.04.2015 20:06 15,5 C 12,8 C 80 % 1006,7 hPa 0,0 l/m 0 min 0 min 25 W/m 6,3 km/h (2 Bft)
25.04.2015 20:08 15,4 C 12,8 C 80 % 1006,7 hPa 0,0 l/m 0 min 0 min 25 W/m 8,4 km/h (2 Bft)
25.04.2015 20:10 15,4 C 12,8 C 80 % 1006,7 hPa 0,0 l/m 0 min 0 min 23 W/m 8,4 km/h (2 Bft)
25.04.2015 20:12 15,4 C 12,2 C 80 % 1006,7 hPa 0,0 l/m 0 min 0 min 23 W/m 8,4 km/h (2 Bft)
25.04.2015 20:14 15,4 C 12,2 C 80 % 1006,7 hPa 0,0 l/m 0 min 0 min 21 W/m 4,2 km/h (1 Bft)
25.04.2015 20:16 15,4 C 12,2 C 80 % 1006,7 hPa 0,0 l/m 0 min 0 min 21 W/m 6,3 km/h (2 Bft)
25.04.2015 20:18 15,3 C 12,2 C 80 % 1006,8 hPa 0,0 l/m 0 min 0 min 19 W/m 10,5 km/h (2 Bft)
25.04.2015 20:20 15,3 C 12,2 C 80 % 1006,7 hPa 0,0 l/m 0 min 0 min 18 W/m 8,4 km/h (2 Bft)
25.04.2015 20:22 15,3 C 12,2 C 80 % 1006,8 hPa 0,0 l/m 0 min 0 min 18 W/m 6,3 km/h (2 Bft)
25.04.2015 20:24 15,3 C 12,2 C 80 % 1006,8 hPa 0,0 l/m 0 min 0 min 18 W/m 4,2 km/h (1 Bft)
25.04.2015 20:26 15,2 C 12,2 C 80 % 1006,8 hPa 0,0 l/m 0 min 0 min 18 W/m 6,3 km/h (2 Bft)
25.04.2015 20:28 15,2 C 12,2 C 80 % 1006,8 hPa 0,0 l/m 2 min 0 min 19 W/m 6,3 km/h (2 Bft)
25.04.2015 20:30 15,2 C 12,2 C 80 % 1006,9 hPa 0,0 l/m 2 min 0 min 19 W/m 6,3 km/h (2 Bft)
25.04.2015 20:32 15,2 C 12,2 C 80 % 1006,9 hPa 0,0 l/m 2 min 0 min 19 W/m 4,2 km/h (1 Bft)
25.04.2015 20:34 15,1 C 11,7 C 80 % 1006,9 hPa 0,0 l/m 0 min 0 min 18 W/m 4,2 km/h (1 Bft)
25.04.2015 20:36 15,1 C 11,7 C 80 % 1006,9 hPa 0,0 l/m 0 min 0 min 16 W/m 4,2 km/h (1 Bft)
25.04.2015 20:38 15,1 C 11,7 C 80 % 1006,9 hPa 0,0 l/m 0 min 0 min 15 W/m 2,1 km/h (1 Bft)
25.04.2015 20:40 15,1 C 11,7 C 80 % 1006,9 hPa 0,0 l/m 0 min 0 min 14 W/m 2,1 km/h (1 Bft)
25.04.2015 20:42 15,0 C 11,7 C 80 % 1007,0 hPa 0,0 l/m 0 min 0 min 12 W/m 2,1 km/h (1 Bft)
25.04.2015 20:44 15,0 C 11,7 C 80 % 1007,0 hPa 0,0 l/m 0 min 0 min 12 W/m 2,1 km/h (1 Bft)
25.04.2015 20:46 14,9 C 11,7 C 80 % 1007,0 hPa 0,0 l/m 0 min 0 min 11 W/m 2,1 km/h (1 Bft)
25.04.2015 20:48 14,9 C 11,7 C 80 % 1007,0 hPa 0,0 l/m 0 min 0 min 9 W/m 2,1 km/h (1 Bft)
25.04.2015 20:50 14,9 C 11,7 C 80 % 1007,0 hPa 0,0 l/m 0 min 0 min 8 W/m 2,1 km/h (1 Bft)
25.04.2015 20:52 14,8 C 11,7 C 81 % 1007,1 hPa 0,0 l/m 0 min 0 min 6 W/m 0,0 km/h (0 Bft)
25.04.2015 20:54 14,8 C 11,7 C 81 % 1007,1 hPa 0,0 l/m 0 min 0 min 3 W/m 0,0 km/h (0 Bft)
25.04.2015 20:56 14,7 C 11,1 C 81 % 1007,1 hPa 0,0 l/m 0 min 0 min 0 W/m 0,0 km/h (0 Bft)
25.04.2015 20:58 14,7 C 11,1 C 81 % 1007,1 hPa 0,0 l/m 0 min 0 min 0 W/m 2,1 km/h (1 Bft)
25.04.2015 21:00 14,7 C 11,1 C 81 % 1007,1 hPa 0,0 l/m 0 min 0 min 0 W/m 2,1 km/h (1 Bft)
25.04.2015 21:02 14,6 C 11,1 C 82 % 1007,1 hPa 0,0 l/m 0 min 0 min 0 W/m 4,2 km/h (1 Bft)
25.04.2015 21:04 14,6 C 11,1 C 82 % 1007,2 hPa 0,0 l/m 0 min 0 min 0 W/m 4,2 km/h (1 Bft)
25.04.2015 21:06 14,6 C 11,1 C 82 % 1007,2 hPa 0,0 l/m 0 min 0 min 0 W/m 4,2 km/h (1 Bft)
25.04.2015 21:08 14,6 C 11,1 C 82 % 1007,1 hPa 0,0 l/m 0 min 0 min 0 W/m 6,3 km/h (2 Bft)
25.04.2015 21:10 14,5 C 11,1 C 83 % 1007,2 hPa 0,0 l/m 0 min 0 min 0 W/m 4,2 km/h (1 Bft)
25.04.2015 21:12 14,4 C 11,1 C 83 % 1007,1 hPa 0,0 l/m 0 min 0 min 0 W/m 4,2 km/h (1 Bft)
25.04.2015 21:14 14,4 C 11,1 C 82 % 1007,1 hPa 0,0 l/m 0 min 0 min 0 W/m 4,2 km/h (1 Bft)
25.04.2015 21:16 14,3 C 11,1 C 83 % 1007,2 hPa 0,0 l/m 0 min 0 min 0 W/m 4,2 km/h (1 Bft)
25.04.2015 21:18 14,2 C 10,6 C 83 % 1007,2 hPa 0,0 l/m 0 min 0 min 0 W/m 6,3 km/h (2 Bft)
25.04.2015 21:20 14,2 C 10,6 C 83 % 1007,2 hPa 0,0 l/m 0 min 0 min 0 W/m 6,3 km/h (2 Bft)
25.04.2015 21:22 14,2 C 10,6 C 83 % 1007,3 hPa 0,0 l/m 0 min 0 min 0 W/m 4,2 km/h (1 Bft)
25.04.2015 21:24 14,2 C 10,6 C 83 % 1007,3 hPa 0,0 l/m 0 min 0 min 0 W/m 4,2 km/h (1 Bft)
25.04.2015 21:26 14,2 C 10,6 C 83 % 1007,3 hPa 0,0 l/m 0 min 0 min 0 W/m 6,3 km/h (2 Bft)
25.04.2015 21:28 14,1 C 10,6 C 83 % 1007,3 hPa 0,0 l/m 0 min 0 min 0 W/m 6,3 km/h (2 Bft)
25.04.2015 21:30 14,0 C 10,6 C 84 % 1007,3 hPa 0,0 l/m 0 min 0 min 0 W/m 4,2 km/h (1 Bft)
25.04.2015 21:32 13,9 C 10,6 C 84 % 1007,3 hPa 0,0 l/m 0 min 0 min 0 W/m 6,3 km/h (2 Bft)
25.04.2015 21:34 13,9 C 10,6 C 84 % 1007,3 hPa 0,0 l/m 0 min 0 min 0 W/m 6,3 km/h (2 Bft)
25.04.2015 21:36 13,8 C 10,6 C 84 % 1007,3 hPa 0,0 l/m 0 min 0 min 0 W/m 6,3 km/h (2 Bft)
25.04.2015 21:38 13,8 C 10,6 C 84 % 1007,3 hPa 0,0 l/m 0 min 0 min 0 W/m 4,2 km/h (1 Bft)
25.04.2015 21:40 13,7 C 10,6 C 85 % 1007,4 hPa 0,2 l/m 0 min 0 min 0 W/m 4,2 km/h (1 Bft)
25.04.2015 21:42 13,7 C 10,6 C 85 % 1007,3 hPa 0,0 l/m 0 min 0 min 0 W/m 6,3 km/h (2 Bft)
25.04.2015 21:44 13,7 C 10,6 C 85 % 1007,3 hPa 0,0 l/m 0 min 0 min 0 W/m 4,2 km/h (1 Bft)
25.04.2015 21:46 13,6 C 10,6 C 85 % 1007,4 hPa 0,0 l/m 0 min 0 min 0 W/m 4,2 km/h (1 Bft)
25.04.2015 21:48 13,5 C 10,6 C 85 % 1007,3 hPa 0,0 l/m 0 min 0 min 0 W/m 6,3 km/h (2 Bft)
25.04.2015 21:50 13,4 C 10,6 C 85 % 1007,3 hPa 0,0 l/m 0 min 0 min 0 W/m 8,4 km/h (2 Bft)
25.04.2015 21:52 13,4 C 10,6 C 85 % 1007,4 hPa 0,0 l/m 0 min 0 min 0 W/m 6,3 km/h (2 Bft)
25.04.2015 21:54 13,3 C 10,6 C 85 % 1007,4 hPa 0,0 l/m 0 min 0 min 0 W/m 4,2 km/h (1 Bft)
25.04.2015 21:56 13,3 C 10,6 C 86 % 1007,5 hPa 0,0 l/m 0 min 0 min 0 W/m 4,2 km/h (1 Bft)
25.04.2015 21:58 13,3 C 10,6 C 86 % 1007,4 hPa 0,0 l/m 0 min 0 min 0 W/m 4,2 km/h (1 Bft)
25.04.2015 22:00 13,2 C 10,6 C 86 % 1007,4 hPa 0,0 l/m 0 min 0 min 0 W/m 4,2 km/h (1 Bft)
25.04.2015 22:02 13,2 C 10,0 C 86 % 1007,3 hPa 0,0 l/m 0 min 0 min 0 W/m 6,3 km/h (2 Bft)
25.04.2015 22:04 13,1 C 10,0 C 86 % 1007,3 hPa 0,0 l/m 0 min 0 min 0 W/m 4,2 km/h (1 Bft)
25.04.2015 22:06 13,1 C 10,0 C 86 % 1007,4 hPa 0,0 l/m 0 min 0 min 0 W/m 4,2 km/h (1 Bft)
25.04.2015 22:08 13,0 C 10,0 C 86 % 1007,3 hPa 0,0 l/m 0 min 0 min 0 W/m 4,2 km/h (1 Bft)
25.04.2015 22:10 12,9 C 10,0 C 87 % 1007,3 hPa 0,0 l/m 0 min 0 min 0 W/m 8,4 km/h (2 Bft)
25.04.2015 22:12 12,9 C 10,0 C 87 % 1007,3 hPa 0,0 l/m 0 min 0 min 0 W/m 6,3 km/h (2 Bft)
25.04.2015 22:14 12,8 C 10,0 C 87 % 1007,3 hPa 0,0 l/m 0 min 0 min 0 W/m 6,3 km/h (2 Bft)
25.04.2015 22:16 12,8 C 10,0 C 87 % 1007,3 hPa 0,0 l/m 0 min 0 min 0 W/m 6,3 km/h (2 Bft)
25.04.2015 22:18 12,8 C 10,0 C 87 % 1007,3 hPa 0,0 l/m 0 min 0 min 0 W/m 6,3 km/h (2 Bft)
25.04.2015 22:20 12,7 C 10,0 C 87 % 1007,4 hPa 0,0 l/m 0 min 0 min 0 W/m 6,3 km/h (2 Bft)
25.04.2015 22:22 12,7 C 10,0 C 88 % 1007,3 hPa 0,0 l/m 0 min 0 min 0 W/m 6,3 km/h (2 Bft)
25.04.2015 22:24 12,7 C 10,0 C 88 % 1007,3 hPa 0,0 l/m 0 min 0 min 0 W/m 8,4 km/h (2 Bft)
25.04.2015 22:26 12,6 C 10,0 C 88 % 1007,3 hPa 0,0 l/m 0 min 0 min 0 W/m 6,3 km/h (2 Bft)
25.04.2015 22:28 12,6 C 10,0 C 88 % 1007,3 hPa 0,0 l/m 0 min 0 min 0 W/m 10,5 km/h (2 Bft)
25.04.2015 22:30 12,5 C 10,0 C 88 % 1007,3 hPa 0,0 l/m 0 min 0 min 0 W/m 8,4 km/h (2 Bft)
25.04.2015 22:32 12,4 C 10,0 C 88 % 1007,3 hPa 0,0 l/m 0 min 0 min 0 W/m 6,3 km/h (2 Bft)
25.04.2015 22:34 12,4 C 10,0 C 89 % 1007,2 hPa 0,0 l/m 0 min 0 min 0 W/m 10,5 km/h (2 Bft)
25.04.2015 22:36 12,4 C 10,0 C 89 % 1007,3 hPa 0,0 l/m 0 min 0 min 0 W/m 8,4 km/h (2 Bft)
25.04.2015 22:38 12,4 C 10,0 C 89 % 1007,3 hPa 0,0 l/m 0 min 0 min 0 W/m 8,4 km/h (2 Bft)
25.04.2015 22:40 12,3 C 10,0 C 89 % 1007,2 hPa 0,0 l/m 0 min 0 min 0 W/m 8,4 km/h (2 Bft)
25.04.2015 22:42 12,3 C 10,0 C 89 % 1007,2 hPa 0,0 l/m 0 min 0 min 0 W/m 8,4 km/h (2 Bft)
25.04.2015 22:44 12,3 C 10,0 C 89 % 1007,2 hPa 0,0 l/m 0 min 0 min 0 W/m 8,4 km/h (2 Bft)
25.04.2015 22:46 12,3 C 10,0 C 89 % 1007,2 hPa 0,0 l/m 0 min 0 min 0 W/m 8,4 km/h (2 Bft)
25.04.2015 22:48 12,3 C 10,0 C 90 % 1007,2 hPa 0,0 l/m 0 min 0 min 0 W/m 10,5 km/h (2 Bft)
25.04.2015 22:50 12,2 C 10,0 C 90 % 1007,2 hPa 0,0 l/m 0 min 0 min 0 W/m 10,5 km/h (2 Bft)
25.04.2015 22:52 12,2 C 10,0 C 90 % 1007,2 hPa 0,0 l/m 0 min 0 min 0 W/m 12,6 km/h (3 Bft)
25.04.2015 22:54 12,2 C 10,0 C 90 % 1007,2 hPa 0,0 l/m 0 min 0 min 0 W/m 10,5 km/h (2 Bft)
25.04.2015 22:56 12,2 C 10,0 C 90 % 1007,2 hPa 0,0 l/m 0 min 0 min 0 W/m 10,5 km/h (2 Bft)
25.04.2015 22:58 12,2 C 10,0 C 90 % 1007,2 hPa 0,0 l/m 0 min 0 min 0 W/m 8,4 km/h (2 Bft)
25.04.2015 23:00 12,2 C 10,0 C 90 % 1007,2 hPa 0,0 l/m 0 min 0 min 0 W/m 6,3 km/h (2 Bft)
25.04.2015 23:02 12,2 C 10,0 C 90 % 1007,2 hPa 0,0 l/m 0 min 0 min 0 W/m 8,4 km/h (2 Bft)
25.04.2015 23:04 12,2 C 10,0 C 90 % 1007,2 hPa 0,0 l/m 0 min 0 min 0 W/m 4,2 km/h (1 Bft)
25.04.2015 23:06 12,2 C 10,0 C 90 % 1007,2 hPa 0,0 l/m 0 min 0 min 0 W/m 4,2 km/h (1 Bft)
25.04.2015 23:08 12,2 C 10,0 C 90 % 1007,2 hPa 0,0 l/m 0 min 0 min 0 W/m 4,2 km/h (1 Bft)
25.04.2015 23:10 12,2 C 10,0 C 90 % 1007,1 hPa 0,0 l/m 0 min 0 min 0 W/m 6,3 km/h (2 Bft)
25.04.2015 23:12 12,2 C 10,0 C 90 % 1007,2 hPa 0,0 l/m 0 min 0 min 0 W/m 4,2 km/h (1 Bft)
25.04.2015 23:14 12,2 C 10,0 C 90 % 1007,2 hPa 0,0 l/m 0 min 0 min 0 W/m 6,3 km/h (2 Bft)
25.04.2015 23:16 12,1 C 10,0 C 90 % 1007,2 hPa 0,0 l/m 0 min 0 min 0 W/m 6,3 km/h (2 Bft)
25.04.2015 23:18 12,1 C 10,0 C 90 % 1007,2 hPa 0,0 l/m 0 min 0 min 0 W/m 4,2 km/h (1 Bft)
25.04.2015 23:20 12,1 C 10,0 C 90 % 1007,2 hPa 0,0 l/m 0 min 0 min 0 W/m 6,3 km/h (2 Bft)
25.04.2015 23:22 12,1 C 10,0 C 90 % 1007,2 hPa 0,0 l/m 0 min 0 min 0 W/m 6,3 km/h (2 Bft)
25.04.2015 23:24 12,1 C 10,0 C 90 % 1007,1 hPa 0,0 l/m 0 min 0 min 0 W/m 8,4 km/h (2 Bft)
25.04.2015 23:26 12,1 C 9,4 C 90 % 1007,1 hPa 0,0 l/m 0 min 0 min 0 W/m 6,3 km/h (2 Bft)
25.04.2015 23:28 12,0 C 9,4 C 90 % 1007,1 hPa 0,0 l/m 0 min 0 min 0 W/m 6,3 km/h (2 Bft)
25.04.2015 23:30 12,0 C 9,4 C 90 % 1007,2 hPa 0,0 l/m 0 min 0 min 0 W/m 8,4 km/h (2 Bft)
25.04.2015 23:32 12,0 C 9,4 C 90 % 1007,2 hPa 0,0 l/m 0 min 0 min 0 W/m 8,4 km/h (2 Bft)
25.04.2015 23:34 11,9 C 9,4 C 90 % 1007,2 hPa 0,0 l/m 0 min 0 min 0 W/m 10,5 km/h (2 Bft)
25.04.2015 23:36 11,9 C 9,4 C 90 % 1007,2 hPa 0,0 l/m 0 min 0 min 0 W/m 6,3 km/h (2 Bft)
25.04.2015 23:38 11,9 C 9,4 C 90 % 1007,2 hPa 0,0 l/m 0 min 0 min 0 W/m 10,5 km/h (2 Bft)
25.04.2015 23:40 11,9 C 9,4 C 90 % 1007,2 hPa 0,0 l/m 0 min 0 min 0 W/m 6,3 km/h (2 Bft)
25.04.2015 23:42 11,9 C 9,4 C 90 % 1007,2 hPa 0,0 l/m 0 min 0 min 0 W/m 12,6 km/h (3 Bft)
25.04.2015 23:44 11,8 C 9,4 C 90 % 1007,3 hPa 0,0 l/m 0 min 0 min 0 W/m 8,4 km/h (2 Bft)
25.04.2015 23:46 11,8 C 9,4 C 90 % 1007,3 hPa 0,0 l/m 0 min 0 min 0 W/m 8,4 km/h (2 Bft)
25.04.2015 23:48 11,8 C 9,4 C 90 % 1007,3 hPa 0,0 l/m 0 min 0 min 0 W/m 6,3 km/h (2 Bft)
25.04.2015 23:50 11,8 C 9,4 C 90 % 1007,3 hPa 0,0 l/m 0 min 0 min 0 W/m 10,5 km/h (2 Bft)
25.04.2015 23:52 11,8 C 9,4 C 90 % 1007,3 hPa 0,0 l/m 0 min 0 min 0 W/m 12,6 km/h (3 Bft)
25.04.2015 23:54 11,8 C 10,0 C 90 % 1007,3 hPa 0,0 l/m 0 min 0 min 0 W/m 10,5 km/h (2 Bft)
25.04.2015 23:56 11,7 C 10,0 C 90 % 1007,3 hPa 0,0 l/m 0 min 0 min 0 W/m 10,5 km/h (2 Bft)
25.04.2015 23:58 11,7 C 10,0 C 90 % 1007,3 hPa 0,0 l/m 0 min 0 min 0 W/m 12,6 km/h (3 Bft)
_ Min-Zeit 08:54 23:26 00:00 19:04 - - - - 06:40
Minimum _ 11,2 C 9,4 C 63 % 1006,5 hPa - - - - 0,0 km/h (0 Bft)
_ Max-Zeit 00:08 15:04 09:30 00:34 00:36 14:36 00:28 17:48 00:24
Maximum _ 17,4 C 15,0 C 93 % 1008,9 hPa 0,2 l/m 2 min 2 min 545 W/m 33,5 km/h
W (5 Bft)
Durchschnitt _ 13,9 C 11,7 C 84 % 1007,6 hPa #1,4 l/m #1:38 h #7:08 h 170 W/m 10,1 km/h (2 Bft)
© 2015 W. Hausmann